Category :
No.FOSSQuestion TitleDateViewsVotesAnswersUser
eSiminstallition problem2020-10-19 19/10/204001shri
ScilabDebug() inderstanding2020-10-16 16/10/20800WizKI
ScilabI'm having trouble during the simulation of Electrical Circuits in Xcos2020-10-16 16/10/201301NandanN
OpenPLCWhat is SEO and suggest me one best seo course?2020-10-16 16/10/201100andreasam
eSimabout uncox and pcox of mosfet2020-10-15 15/10/202101harish
PythonDynamically schedule python scripts based off dates in csv2020-10-15 15/10/201900soumyarani
eSimngspice error2020-10-15 15/10/202203manasared…
eSimabout transistor operating region2020-10-14 14/10/202401harish
FOCALResize an imported images2020-10-13 13/10/201701Madhulika
FOCALFrames per second2020-10-13 13/10/202001Madhulika
FOCALHow to set Time frame2020-10-13 13/10/202301Madhulika
FOCALSynfig Studio 1.2.2 canvas resize2020-10-13 13/10/202201usha
FOCALSynfig Studio 1.2.22020-10-13 13/10/203002usha
DWSIMLINUX MANJARO2020-10-12 12/10/201900Nef259
eSimcan we 10bit adc simulations with opensource PDK?2020-10-11 11/10/202301sai_githe…
eSimabout kicad netlist query2020-10-10 10/10/202601chethanb
Affordable-Laptopblack screen2020-10-09 09/10/202601rucha
DWSIMRadFrac Model2020-10-08 08/10/202801pawan1848
eSimtransistor Region2020-10-08 08/10/202501manasared…
Affordable-LaptopISO File for the IITB version OS2020-10-07 07/10/203901arsingh
DWSIMExtractive Distillation converging2020-10-06 06/10/203101pawan1848
eSimregarding ac source2020-10-05 05/10/202701harish
ScilabHow to activate Symbolic Maths in Scilab 6.1?2020-10-05 05/10/203500kalyansg
eSimAbout model parameters2020-10-05 05/10/203501manasared…
DWSIMAbsorber simulation in version 6.12020-10-04 04/10/203300kumasuresh
eSimmay i know how to calculate the current2020-10-03 03/10/204702harish
Affordable-Laptopdevnagari fonts2020-09-30 30/09/205201prarthjeet
eSimunable to read analysis file2020-09-29 29/09/206402manasared…
DWSIMCompound/component mapping2020-09-28 28/09/204703jfontalvo
DWSIMfew options not available2020-09-26 26/09/204401Preet
ScilabSolution for following error!!!2020-09-25 25/09/206601OranTevin
DWSIMFormalin simulation2020-09-25 25/09/204900DDP5091
eSimnghdl installation2020-09-24 24/09/208305manasared…
DWSIMthe flash algorithm not appering dwsim2020-09-24 24/09/205201Mukesh_Ka…
eSimAbout global label error2020-09-23 23/09/204901Manasa
eSimunable to create new project2020-09-23 23/09/206201harish
eSimIam not able to connect the wire between some components in kicad editor...but …2020-09-21 21/09/206902Manasa
Pythonerror fixing2020-09-21 21/09/206500jkahir143
OpenFOAMProblem before Instaling OPENFOAM2020-09-19 19/09/208702pankajkgu…
DWSIMHow to add Sucrose compound to the Database?2020-09-18 18/09/206401hadi.ebra…
ScilabScilab crashing on FFT2020-09-17 17/09/207500abbas14
DWSIMproperty pacakge2020-09-16 16/09/207911div348
Affordable-Laptopupdating GNU octave2020-09-14 14/09/206501rucha
DWSIMflash algorithm not appering dwsim2020-09-13 13/09/207801Mukesh_Ka…
ScilabXCOS electric simulation does not work2020-09-12 12/09/209401mchait@uc…
eSimAdding a Library2020-09-12 12/09/208901karanmeht…
ScilabHow To: Estimate System (transfer Function) from the Input and Output Data2020-09-09 09/09/209001abbas14
DWSIMUnable to use 32 bit C++ DLL in DWSIM5 source code.2020-09-09 09/09/2015701TestUser96
DWSIMInstallation of DWSIM2020-09-07 07/09/2010301ujjaval_34
DWSIMHow to sort component list (Selected compounds)?2020-09-06 06/09/209103hadi.ebra…
DWSIMWHAT TO USE FOR EVAPORATOR2020-09-05 05/09/2016301apizzashit
DWSIMObject reference not set to an instance of an object?2020-09-05 05/09/205001FATC25
DWSIMI have problems changing the compunds in a existing model?2020-09-02 02/09/2010802svahe
Affordable-LaptopSound card not working ??2020-09-01 01/09/209402nilesh.hi…
Pythonunable to obtain the link of txt file and download mentioned in the videos2020-08-31 31/08/2010600kaif2k4
DWSIMADDING A COMPOUND2020-08-31 31/08/2012701apizzashit
DWSIMcentrifugal pump2020-08-29 29/08/2010801div348
DWSIMheterogeneous catalyst2020-08-28 28/08/2011601Cristiang…
Pythoncat.primes.text2020-08-27 27/08/2015000riti.gold…
Affordable-LaptopI want to buy2020-08-25 25/08/2010701gundlasai…
DWSIMParallel reaction in Heterogeneous catalytic reaction2020-08-25 25/08/2012901Ankeeta
Affordable-Laptopwifi icon missing2020-08-25 25/08/2010602rucha
ScilabNormalisation principle in X2C2020-08-24 24/08/2014701jnbera
eSimAbout eSim AC source parameter setting2020-08-23 23/08/2014601RavisakarM
eSimHalf wave rectifier2020-08-20 20/08/2012801Tamilselv…
DWSIMREGARDING INTERNSHIP FORMS.2020-08-19 19/08/2013601atomicrou…
DWSIMThe tab for binary phase envelope is not visible on reopening the dwxml file.2020-08-19 19/08/2011001Ritika303
Pythonby using %save i plot_script.py and then %run plot_script.py gives not find fil…2020-08-16 16/08/2010900artipatel
DWSIMBiomass pirolisis2020-08-16 16/08/2013202Lainet
DWSIMError in adding connections to Cape_Open Objects2020-08-15 15/08/2015802ANURAG114
eSimError( unknoen model)2020-08-15 15/08/2013101Anil92
Pythonwhat is the substitute of linspace() function?2020-08-14 14/08/2010600artipatel
eSimERC ErrrType (3)2020-08-14 14/08/2012201vipin_tiw…
Pythonsave plot using savefig() function2020-08-13 13/08/2010400artipatel
ScilabXcos files can not be opend2020-08-13 13/08/2013301Juergen
Scilabtransformation2020-08-13 13/08/2012601Fajrin
ScilabCode gen to (preferably) modern C++2020-08-13 13/08/2012200Daevor
OsdagLatest version with member designs2020-08-13 13/08/2012401knrajeshc…
ScilabScilab program has stopped working when excecuting code.2020-08-12 12/08/2013702Niels
DWSIMError in Density calculation2020-08-12 12/08/2012101varun
OpenFOAMLarge eddy simulation2020-08-12 12/08/2014401ASHUTOSH
eSimRegarding components (quartz crystal)2020-08-09 09/08/2013302Anil92
eSimNot Working on Ubuntu 18.04LTS2020-08-08 08/08/2014001srinivasy
eSimConflict between sources2020-08-08 08/08/2013001Neethu
eSimeSim ouput filtering2020-08-08 08/08/2012601Neethu
Affordable-LaptopLog in related issue due to disk space problem2020-08-04 04/08/2013301ABose
ScilabScilab is not working2020-07-31 31/07/2017201unnati
DWSIMThermodynamic property package selection2020-07-31 31/07/2018301madhur14
Affordable-LaptopInstalling hard disk in RDP thinbook2020-07-31 31/07/2013301sumedha_m…
ScilabFTP file transfert2020-07-29 29/07/2013500damo29
DWSIMUsing temperature dependent function of K in Equilibrium Reactor2020-07-27 27/07/2015701hadi.ebra…
Affordable-LaptopInstalling python3.6 on linux92020-07-27 27/07/2013601sumedha_m…
Affordable-LaptopRemotely accessing windows desktop from linux machine2020-07-25 25/07/2012801sumedha_m…
PythonAmount is debited but transaction is failed2020-07-25 25/07/2015800Andy@1108
DWSIMI have installed and configured GNU Octave but i cant able to model pc shaft2020-07-25 25/07/2016402varun
DWSIMHow to model Pc Shaft in Dwsim updated version.2020-07-24 24/07/2014502varun
Affordable-LaptopIssue in extracting vpn files to overwrite default config files2020-07-22 22/07/2017603sumedha_m…
eSimError while installing Esim2020-07-19 19/07/2016601gouravjha7
Affordable-LaptopDisk space related issue2020-07-18 18/07/2013101ABose
DWSIMNEW COMPOUND ADD2020-07-18 18/07/2018401sanjayaso…
OsdagWhen will be the all design elements like tension compression etc will release …2020-07-15 15/07/2015701vrvg11
OpenFOAMRegarding error in new expression syntax in openfoam 19122020-07-15 15/07/2016901drijazfaz…
Affordable-LaptopNo sound input2020-07-14 14/07/2014501sumedha_m…
eSimOpening schematic for a new project2020-07-14 14/07/2019401Hela123
DWSIMDWSIM installation Error2020-07-13 13/07/2019901sagar.j
eSimfoot print layout for PCB designing for 7805voltage reggulator2020-07-10 10/07/2020402Avinash@1…
DWSIMsimulation inspector2020-07-09 09/07/2016501div348
ScilabHow can I align the zeros in a two y-axes plot2020-07-09 09/07/2016800jlafouger…
eSimfoot print layout for PCB design2020-07-09 09/07/2018002Avinash@1…
eSimUnable to open schematic2020-07-09 09/07/2019103Hela123
OpenFOAMHow to update supply temperature on boundary based on the measured temperature …2020-07-03 03/07/2021001drijazfaz…
DWSIMHeterogeneous Catalytic Error tf=t02020-07-01 01/07/2020501evapagan
Affordable-LaptopBluetooth Wireless headset (Skull candy Riffle wireless) not connecting to lapt…2020-07-01 01/07/2016802saiplanner
eSimFootprint library2020-06-29 29/06/2019101Nikhibhy
eSimWhy there is a need of PWR_FLAG?2020-06-28 28/06/20189011930120
eSimUnder "Device Modeling" Tab for Kicad to Ngspice conversion, what kinds of file…2020-06-28 28/06/20190011930120
eSimEsim doesnt start - gives error message related to ZLIB_1.2.9 on Ubuntu 18.04.42020-06-27 27/06/2022202alfaraser
PythonPython certification for May 20202020-06-26 26/06/2021300devasmit
PythonPython certification2020-06-26 26/06/2017300devasmit
FOSSEE LaptopDownload mobdro 2.1.86 for PC or laptop?2020-06-26 26/06/2015701AlmiraAlma
ScilabRegarding TBC internship forms2020-06-25 25/06/2018401Nandika_A…
Pythonfailure to run ipython2020-06-23 23/06/2017501skumar484
RInstalling R and R Studio2020-06-22 22/06/2016800Ruqsalvi19
ScilabCan't display results on a plot2020-06-22 22/06/2020000termobermo
PythonJupyter Notebook issues with Python32020-06-20 20/06/2016601Dipgo
ScilabIGBT Block in Scilab/Xcos2020-06-19 19/06/2021600mat885
ScilabHow Can I choose one root between two roots in a second order polynomial on Sci…2020-06-19 19/06/2020700termobermo
FOSSEE LaptopHow to configure bios2020-06-17 17/06/2015801jhonyd1
OpenFOAMPostProcess for OpenFOAM1606+2020-06-16 16/06/2021701Tgs4HW
Pythonwill use issue certificate of Python Self Learning Course of python of may 20202020-06-15 15/06/2021800vinodcsit
PythonCertificate not issued2020-06-14 14/06/2021702hatimhuss…
DWSIMRegarding Optimization Tool2020-06-13 13/06/2019001Milan
eSimInbuild project2020-06-12 12/06/2020701Anil92
eSimInvert the signal2020-06-12 12/06/2020001bosco303
eSimeSim devices2020-06-12 12/06/2021501Avinash@1…
PythonCERTIFICATION2020-06-11 11/06/2029402VISHNUVAR…
eSimunable to install eSim 2.0 on ubuntu 20.04LTS2020-06-11 11/06/2026201Varad
eSimDevies in filter2020-06-11 11/06/2022002Avinash@1…
ScilabScilab not working with ubuntu 20.04 LTS2020-06-10 10/06/2036400ankit510
PythonRegarding course access2020-06-10 10/06/2020300Vaishnavi…
ScilabScilab memory (stacksize) issues2020-06-10 10/06/2020400vvadde@gm…
eSimunable to install eSim 2.0 on ubuntu 20.04LTL2020-06-10 10/06/2019601Varad
Pythonregarding B grade in self learning python course2020-06-09 09/06/2021600vinodcsit
PythonCertificate enquiry2020-06-09 09/06/2023100prav17225…
ScilabHow to integrate Scilab with Moodle platfrom for performing the practical2020-06-09 09/06/2021600pratik.ag…
ScilabSolution for following error2020-06-09 09/06/2022800cmrit
PythonGrading System2020-06-02 02/06/2023001saahilz
ScilabRegarding TBC2020-06-02 02/06/2019301Nandika_A…
PythonHow to register for Python self learning course?2020-06-01 01/06/2037901sobiyamou…
Scilabxcos modulo function2020-05-31 31/05/2024901btremaine
PythonRegarding python self learning course and workshop2020-05-31 31/05/2021201Shivangi_…
Scilabxcos vector division2020-05-29 29/05/2021800MAyliffe97
eSimnon conduction of bottom SCR2020-05-28 28/05/2022601suji1234++
eSimnon conduction of SCR2020-05-28 28/05/2020801suji1234++
ScilabDrawing with xcos2020-05-28 28/05/2019900Omeg12
ScilabQuestion about radius value in polarplot command2020-05-27 27/05/2023800Joao_Bomf…
FOSSEE LaptopToolbar and multimedia list2020-05-23 23/05/2017201GSMahapat…
PythonSpyder3 Update2020-05-23 23/05/2019501GSMahapat…
Affordable-Laptopbattery charging LED2020-05-23 23/05/2018801peeyushte…
ScilabModelica error2020-05-23 23/05/2024400g_haldank…
ScilabXcos gives a modelica error2020-05-23 23/05/2024000g_haldank…
FOSSEE LaptopBrightness of screen2020-05-23 23/05/2017201GSMahapat…
ScilabXcos Electrical Loads Analysis2020-05-22 22/05/2024500MAyliffe97
Affordable-LaptopBuying a new adaptor for rdp laptop2020-05-22 22/05/2020901nilesh.hi…
Scilabcreating random numbers and histogram plot in scilab2020-05-22 22/05/2023000debidatta
PythonCanopy unavailable2020-05-20 20/05/2020901devasmit
ScilabRandom No. Generator Code in ScIlab and its visualization in graph by help of c…2020-05-19 19/05/2025202debidatta
Rhow to install R and R-studio on Macbook2020-05-18 18/05/2021301eshabansa…
eSimhow to get LM 7412020-05-17 17/05/2024001kalai_123…
PythonAbout Certificates2020-05-16 16/05/2033302sritamasw…
PythonRegarding python next schedule2020-05-16 16/05/2021901Aishwarya…
ScilabScilab Textbook Companion Project2020-05-16 16/05/2026201Usaid
eSimToo few parameters2020-05-15 15/05/20280026christina…
ScilabCan't import Matlab libraries?.2020-05-14 14/05/2019801iosman001
DWSIM3-phase separator2020-05-14 14/05/2031902Danita
ScilabXCOS scope plot gridlines2020-05-13 13/05/2026001fbartra
eSimvoltage regulator2020-05-12 12/05/2027001bosco303
DWSIMPVC Component2020-05-12 12/05/2022801aravindfo
Scilabusing debug mode2020-05-12 12/05/2026802B@Ksva
Affordable-LaptopKDE plasma login2020-05-11 11/05/2020902GSMahapat…
ScilabLevenberg Marquardt2020-05-11 11/05/2021600RudiLehn
eSimBoost converter switch2020-05-11 11/05/2026901bosco303
eSimreference designator for Mosfet in subcircuit2020-05-06 06/05/2024801FireLdrago
ScilabHow to fit data and derivate fited data?2020-05-04 04/05/2024901proxquad
DWSIMError in Equilibrium Reactor2020-05-04 04/05/2025401Deep_Sino…
Scilabusing spinner uicontrol2020-05-03 03/05/2025103B@Ksva
PythonRegistration2020-05-01 01/05/2029501sknama
Pythondo we have pyhton shell on Ubuntu / linux platform2020-04-29 29/04/2022101Harshala
PythonUnable to download canopy as instructed by Instructor2020-04-29 29/04/2024101sbirthari…
RHow to find the Code files from where we can download captaincy.csv data file f…2020-04-28 28/04/2028501snehangshu
ScilabProblem with dynamic link - Ubuntu2020-04-28 28/04/2024301Galandak.J
ScilabRésolution of ODE +log2020-04-27 27/04/2023200Lolamagiq…
PythonRegarding Certificate2020-04-27 27/04/2030402Vaidehi15
DWSIMPolymer Component creator2020-04-27 27/04/2026503aravindfo
RIf I insrall latest version of R , Any problem arise in my learning??2020-04-27 27/04/2024701immangwu
PythonHow to down load Ipython in windows2020-04-26 26/04/2021001srikanths…
Affordable-LaptopIs there any software upgrade from debian 9 to debian 10 buster?2020-04-25 25/04/2023901Jothi
ScilabScilab Coding for cluster formation in scilab2020-04-25 25/04/2027601debidatta
Pythonerror in cat2020-04-23 23/04/2024101sonys.ec@…
ScilabScilab Coding for cluster analysis in molecular dynamics2020-04-19 19/04/2030700debidatta
RInstallation Package like mass, ggplot2 are not installed2020-04-19 19/04/2034401D.JOTHI
eSimCritical Path Delay2020-04-17 17/04/2025601Namra_Riaz
eSimCircuit simulation project- PCB design2020-04-16 16/04/2025801sai_srika…
ScilabXCOS Second Order System with Imaginary Poles "Answer given for denominator is …2020-04-16 16/04/2027401Ansollis
eSimproject nsme2020-04-15 15/04/2024601lochan
PythonUsing Plot Command Interactively2020-04-14 14/04/2026701gandharv1…
ScilabScilab/Xcos undefined variable2020-04-11 11/04/2033801dollety
eSimhow to save a subckt2020-04-10 10/04/2028601lochan
eSimWhere to find library of most devices2020-04-08 08/04/2028801lochan
eSimNew installation procedure2020-04-08 08/04/2031901gryphonB2
PythonAbout certificate2020-04-07 07/04/2035801Gagana
Affordable-Laptopmicrophone sound not detected2020-04-05 05/04/2025001peeyushte…
Affordable-LaptopHard disk stops working2020-04-04 04/04/2022701sethbharat
eSimproblem esim-2.0 on ubuntu 18.042020-04-02 02/04/2033102ernottep
Affordable-LaptopVideo editor that works on affordable laptop2020-03-30 30/03/2024201sethbharat
ScilabRL Transient response2020-03-30 30/03/2029401mpnmeenu
DWSIMSyntheis/production of ammonium nitrate2020-03-26 26/03/2030501p0tterhead
ScilabExecuting file in other Software (FlexPDE)2020-03-24 24/03/2027900KopeSteff
ScilabScilab Gui axes object problem.2020-03-24 24/03/2029201bediaakbu…
PythonREGISTER FOR ONLINE QUIZ2020-03-23 23/03/2034601ANSHU
ScilabPrintf Format need the output for the Exponential value2020-03-23 23/03/2025902trulyajays
Scilabconcatenate two or more string from matrix2020-03-19 19/03/2027701GianGasto…
ScilabPossibility to create a process with tags connected to an OPC server.2020-03-10 10/03/2033301Toltchok
ScilabProblem with dynamic link2020-03-05 05/03/2035800Galandak.J
eSimhow to open esim2020-03-03 03/03/2036301mozammil
OpenFOAMMesh generation using blockMesh utility2020-03-02 02/03/2034905sourav0921
eSimplot error in esim2020-03-02 02/03/2034301kanhaiya@…
ScilabVibration acceleration enveloping for bearing fault detection2020-02-29 29/02/2026700AndrewYeu…
eSimHow to build/make an IC in eSim so it can be used in schematic via place compon…2020-02-27 27/02/2034202ashutosh2…
eSimI am trying to use a transformer in a circuit but error in esim simulation2020-02-26 26/02/2030902Dhruvajit
Scilabfft on simple plot2020-02-26 26/02/2032400will20fitz
OpenPLCChange of OS2020-02-25 25/02/2025501rosh81296
DWSIMFlowsheet proposal form submitted but one of the compounds to be used was left …2020-02-24 24/02/2044501proactiv13
eSimNsSpice plot not working2020-02-20 20/02/2032001muditgarg
DWSIMAmberlyst and sulfuric acid are not available in the list, how to proceed.2020-02-18 18/02/2032201proactiv13
ScilabData fitting leastsq vs. lsqrsolve, don't success to use lsqrsolve2020-02-18 18/02/2032800phoudha
RWant to learn R Programming for Data Science?2020-02-18 18/02/2032502vikrantra…
eSimNOT ABLE TO REGISTER AND SUBMIT2020-02-16 16/02/2039001SumithKum…
PythonBASIC PYTHON PROGRAMMING REGD2020-02-14 14/02/2034101sanjay13
PythonWhat is worth and cost of Artifical Intelligence?2020-02-10 10/02/2031801vaishnavi
ScilabDownload scilab on Mac2020-02-10 10/02/2026401Lili9500
eSimLM2596 component no present2020-02-09 09/02/2030901Sumanto
PythonUpgradation of a package2020-02-09 09/02/2024101GSMahapat…
Pythoni registered for the workshop to participate in that. and yesterday2020-02-08 08/02/2027601rishabhar…
Scilabset to visible2020-02-06 06/02/2027501KLL2784
ScilabData from Figure2020-02-05 05/02/2026701Aseem
ScilabUsing Scinotes and parfor2020-02-05 05/02/2025901butiki
RHow do you fix a programming error in R?2020-02-04 04/02/2027101evonmispe…
PythonHow to combine multiple (many) .txt files into one2020-02-04 04/02/2024601tyresebro1
RWhat are some good onlne courses for R Programming?2020-02-03 03/02/2024901Karen
ScilabOpening a text file in scilab2020-02-03 03/02/2027801butiki
eSimRegarding potentiometer2020-01-30 30/01/2031401aclab
eSimAstable Multivibrator using 555 timer2020-01-30 30/01/2034001sumathi_k
eSimReagrding adding AC source2020-01-29 29/01/2037701aclab
eSimAstable mutivibrator2020-01-29 29/01/2034501aclab
Pythonregarding python self learning course2020-01-26 26/01/2029401disha_kha…
Affordable-LaptopFIles and folders backup2020-01-19 19/01/2024301sethbharat
Scilab ToolboxFOSSEE Optimization Toolbox: Least squares problem call to fmincon does not wor…2020-01-18 18/01/2030001brant
DWSIMReaction manager in Mac os2020-01-18 18/01/2034901suratiapr…
ScilabCheck if x or y are eigenvectors of matrix A.2020-01-16 16/01/2028701praveenpk
PythonThe error message viewed at the beginning of Spyder32020-01-15 15/01/2028101GSMahapat…
Scilab ToolboxFOSSEE Optimization Toolbox: Least squares problem call to fmincon does not work2020-01-14 14/01/2027500brant
Scilab ToolboxI am having problems with the below code. It is a2020-01-14 14/01/2022200brant
ScilabPlease help me in solving the problem in scilab2020-01-14 14/01/2028601praveenpk
ScilabCould anyone please help me in solving the following problem2020-01-14 14/01/2025401praveenpk
eSimInstallation Error in NgSpice2020-01-14 14/01/2032601vishvendr…
ScilabUsing function datafit2020-01-14 14/01/2027301osantana
PythonError message in Spyder32020-01-13 13/01/2022601GSMahapat…
eSimError in grounding the circuit2020-01-12 12/01/2026801Aravinth_…
eSimERROR IN kicadtongspice convertor2020-01-12 12/01/2029801Aravinth_…
ScilabCan't import Matlab libraries2020-01-11 11/01/2028202vramirez
ScilabEquivalent function or procedure to Matlab's analoginput('winsound')2020-01-08 08/01/2033201osantana
FOSSEE LaptopAdministrator(root) password is not working2020-01-08 08/01/2023601mahesh464
ScilabHow else can I optimization this code?2020-01-08 08/01/2029101SwissMan
PythonEnrolment for course2019-12-24 24/12/1934301anujkyadav
PythonWhen will I be able to view the results (scores) of Advkvpython2019 Phase II Qu…2019-12-18 18/12/1925901vimalatho…
DWSIMError while opening "Open Python Script Editor"2019-12-06 06/12/1938001drmankarj…
Scilab ToolboxIt came from the same source code as Matlab2019-12-05 05/12/1931801JubinMenez
ScilabNeed help this matlab function into Scilab [fitobject,gof,output] = fit(x,y,fit…2019-12-05 05/12/1932101waqas.ahm…
DWSIMAutomation of compound separator2019-12-04 04/12/1934101drmankarj…
ScilabCatching data with pc audio card using Scilab and (or) Xcos2019-12-03 03/12/1930901osantana
eSimError in kicad to ngspice.2019-12-02 02/12/1935301stevenogg
PythonHow to download certificate after completion of the self learning python progra…2019-11-29 29/11/1950501Sujithcse
eSimhow to do AC analysis in eSim2019-11-27 27/11/1941404prakhar
PythonRestricted the input up to 8character2019-11-24 24/11/1929001kvandrews…
PythonKvadvance Python course2019-11-23 23/11/1930311kvandrews…
OpenFOAMConvergence problem in steady state simulation of centrifugal fan in openfoam2019-11-22 22/11/1966501rohanmaja…
OpenFOAMWhere to add new field while using dsmcfoam?2019-11-22 22/11/1950202kevin
ScilabInformation about .sci file2019-11-18 18/11/1936501Keerthi_v…
PythonPrerequisite Quiz could not attempted due to technical problem in kv advance co…2019-11-14 14/11/1931301jitinkohli
RIs it possible to index the data using two variables (while using indexing and …2019-11-09 09/11/1932201MandarKul…
OsdagDuring instalation found problem with miniconda and PyQt5 module2019-11-07 07/11/1933401jureko
ScilabIs it possible to input values from Excel directly into scilab?2019-11-03 03/11/1937602UltraEvil…
eSimUnable to add library2019-11-02 02/11/1940401arpitg
eSimMapping components footprints2019-11-02 02/11/1940702Aman_M
Affordable-LaptopProblem with the use of earphones2019-10-31 31/10/1939601Vikram
ScilabCan we give a link to Xcos examples from xcos.fossee.in?2019-10-30 30/10/1940001kannan
ScilabHow can I select variables in the Xcos SUPER_f-block mask-editor?2019-10-29 29/10/1960702louis.sch…
PythonWhen and where will the quiz scores and answer sheets shown...2019-10-26 26/10/1949801Ambily_Kr…
PythonWhen will I be able to view the results (scores) of kvpython2019 Phase I Quiz …2019-10-23 23/10/1933601vimalatho…
PythonView score of Python quiz regarding2019-10-22 22/10/1933201Benzi_R
PythonRegarding the Basics of Python Programming -KV August 20192019-10-20 20/10/1933201kvandrews…
Affordable-LaptopHDMI not working properly2019-10-17 17/10/1937303sethbharat
Scilabhow do I adjust the x y intercept?2019-10-15 15/10/1938201bonads
ScilabIs there any mathematical package available in SCILAB for Exponential integral …2019-10-14 14/10/1936101shuvenduj…
Scilab-ArduinoWhat do you guys think of SciLab to Ardunio?2019-10-14 14/10/1942400Redington
DWSIMUsing a custom compound2019-10-10 10/10/1945802Envoy467
Scilab-ArduinoWhat i am wanting to do is simple but I just2019-10-09 09/10/1944600BintuGomes
Scilabhow to get quad encoder in scilab2019-10-05 05/10/1940601sashanksa…
Scilabplot doesn't work2019-09-30 30/09/1949101toto1
PythonBasic of python programming kv August 20192019-09-22 22/09/1956201nishantra…
eSimConnectors for Astable Multivibrator2019-09-21 21/09/1940501Ravikiran…
ScilabSliding Window2019-09-21 21/09/1940102hoon07
eSimNot able to run this software. Tried installing it many times. Could you please…2019-09-21 21/09/1944801shafaz
eSimFootprint window open but last column will not be displayed2019-09-21 21/09/1933502revansidh
eSimfoot prints appropriate for my selected components2019-09-21 21/09/1936701venky4004
eSimREGARDING OUTPUT2019-09-21 21/09/1935003akhilesh
eSimDo the participants of the workshop need to upload the results2019-09-21 21/09/1932801janibasha
eSimAssignment for getting certificate of esim workshop2019-09-21 21/09/1937501gaurav.na…
eSimDifferent between eSim_NPN and BC5472019-09-21 21/09/1938502khinphyot…
eSimError in python plotting2019-09-21 21/09/1937402aparna.ma…
eSimUnable to shows kicad to ngspice successfully conversion message window2019-09-21 21/09/1932101revansidh
eSimerror message occured while simulation2019-09-21 21/09/1936401dhara.pra…
eSimUnable to get DC analysis2019-09-21 21/09/1933101pramod.s1…
eSimError Message while simulation2019-09-21 21/09/1936102sdshabbie…
eSimThe project does not contain any Kicad netlist file for conversion.2019-09-21 21/09/1936901Lakshmi@1…
eSimError occured after simulation2019-09-21 21/09/1933001drbvvsati…
eSimhow to search a specific components for a typical circuit design2019-09-21 21/09/1933001potdar.bi…
eSimesim application to electrical engineering2019-09-21 21/09/1936302g.srinivas
eSimpython version2019-09-21 21/09/1932301dae1948
eSimeSim installation issues2019-09-20 20/09/1939701sebin
eSimcVpcb takes long time to open or it keeps loading2019-09-20 20/09/1930201sebin
ScilabPlot a single vector.2019-09-20 20/09/1934501Ironmaniac
eSimElectrical Rule Check2019-09-20 20/09/1954402Devibhaga…
Affordable-LaptopUpdate not installed - not signed?2019-09-20 20/09/19366018gaitonde
eSimi am not able to connect wire to components2019-09-19 19/09/1931501BUNTYJATT
Affordable-LaptopHow to disable KDE wallet manager2019-09-19 19/09/1943701sethbharat
eSimUnable to create new project file2019-09-18 18/09/1943101Zapper20
eSimUnable to perform simulation for astable multivibrator2019-09-18 18/09/1933001Mrunalini
DWSIMCAPE-OPEN Unit Operations2019-09-17 17/09/1956902phani4cts
DWSIMHow to add a Component Splitter2019-09-17 17/09/1951901phani4cts
eSimCvPcb error, May be our institute proxy blocking the CvPCb2019-09-17 17/09/1932701janibasha
PythonHow to complete a module in an enrolled course.2019-09-17 17/09/1934001manojkv
Pythonipython_Error2019-09-16 16/09/1942701indrajit6…
Affordable-LaptopForgot laptop password2019-09-16 16/09/1931502deepakgup…
eSimError in kicad to ngspice2019-09-15 15/09/1935701ankit@21
eSimunable to perform simulation2019-09-14 14/09/1934601janibasha
OpenFOAMError: Pcorr goes to nan. (Diverging)2019-09-12 12/09/1940002Rohan_Sri…
Affordable-LaptopNot able to setup wifi possibly because sudo does not work2019-09-12 12/09/1935102sethbharat
Pythonkv pyhthon 20192019-09-12 12/09/1931701ruchijain
PythonREGARDING STUDY MATERIAL IN PENDRIVES FOR Basics Of Python Programming - KV Aug…2019-09-12 12/09/1935801ruchijain
ScilabRaspberry Pi with Scilab2019-09-12 12/09/1984001BR_Bruno
eSimnew spoken tutorials on Astable multivibrator are not appearing2019-09-11 11/09/1936802janibasha
Affordable-LaptopBengali and Sanskrit transliteration in Affordable Laptop2019-09-10 10/09/1933202Dipgo
Pythonkvpython19 course2019-09-10 10/09/1936201m_rohilla
eSimhow to select IC5552019-09-09 09/09/1932302revansidh
PythonPROBLEM WITH QUIZ2019-09-08 08/09/1931101agrorahul
eSimTo Draw Overlapped Track on PCB2019-09-06 06/09/1930501sunilshah
eSimUrgent: Problem Facing during installation of esim in mint-18 linux OS2019-09-05 05/09/1932203pinkeshpa…
eSimhow to get the transfer characters of JFET or MOSFET2019-09-05 05/09/1931102anupamash…
ScilabLegends for Polar Plot2019-09-04 04/09/1948602SharathDi…
ScilabTextbook companion project review2019-09-04 04/09/1939101Keerthi_v…
eSimfacing a problem to install a esim setup2019-08-31 31/08/1934801ankit@21
eSimSoftware crash2019-08-31 31/08/1938501Zapper20
OpenFOAMHelp me choose MFEM vs deal_ii2019-08-29 29/08/1937901jeff12
ScilabLoad sqlite Textfile into Matlab.2019-08-28 28/08/1937901TheGlenli…
eSimErrors descriptions and remedies2019-08-26 26/08/1935701rupeshdub…
eSimSource details not appearing2019-08-25 25/08/1939501rupeshdub…
Affordable-LaptopChromecast on Linux2019-08-23 23/08/1936001dadas
PythonAnimated social contagion graph2019-08-19 19/08/1941201terry131
Affordable-LaptopRegarding Linux synaptic package manager2019-08-18 18/08/1939401sebin
eSimhow to find input characteristics of BJT CE config2019-08-16 16/08/1952904anupamash…
OpenFOAMChoosing appropriate boundary conditions for turbulent quantities2019-08-13 13/08/1942001razon1312…
eSimKi- Ng conversion is not happening and the plot files .V files are not availabl…2019-08-12 12/08/1933001anupamash…
eSimInput output characteristics of Common emitter configuration2019-08-12 12/08/1938101anupamash…
FOSSEE LaptopFossee Laptop2019-08-08 08/08/1935700bbgy4
Scilabproblem loading a .sav2019-08-06 06/08/1938601ersoule
eSimwhile converting kicad to ngspice, it is ap[pearing as "Your schematic contain …2019-08-06 06/08/1937601deviM
eSimIoT simulation2019-08-04 04/08/1937701anoop.eg
Scilabfailure of some of the simulations of "demo" in XCOS2019-08-03 03/08/1958301shweta
Affordable-LaptopIs playing PC game on affordable laptop riskyyy ?????2019-08-02 02/08/1938201leoly111
eSimwhen i submit the hardware assignment it will not attach my file of zip 1182.ra…2019-08-02 02/08/1939401revansidh
eSimit gives python error also while selecting device modeling parameter led libra…2019-08-02 02/08/1935301revansidh
eSimWhen we will start to registration of other faculty for main workshop which wil…2019-08-02 02/08/1949201revansidh
eSimIs it necessary to submit astable multivibrator Gerber file.2019-08-02 02/08/1938901revansidh
eSimWhen assign simulation parameter in kicad to spice conversion and when click on…2019-08-02 02/08/1939101revansidh
eSimHow to submit the coordinator assignment using hardware kit for esim2019-07-31 31/07/1944802deviM
eSimHow to submit the assignment for esim2019-07-31 31/07/1939101deviM
Affordable-LaptopRecovry from hung computer2019-07-30 30/07/1937201sethbharat
eSimWhat are the steps design pcb for multilayer?2019-07-29 29/07/1934301revansidh
eSimHow to design pcb for multilayer?2019-07-29 29/07/1935201revansidh
eSimError while opening Python plotting editor, so unable to simulate2019-07-29 29/07/1952901bncetrcc1…
DWSIMchemicals and thermodynamic2019-07-28 28/07/1947201@azharmohd
Affordable-Laptopdata processing2019-07-28 28/07/1931701prarthjeet
eSimRegarding project files present in virtual machine2019-07-27 27/07/1940401sebin
eSimerror , not able to see source details2019-07-27 27/07/1940901sesidhar
eSimconvert kicad to ngspice2019-07-27 27/07/1937601vbhujade
eSimnot proper output2019-07-27 27/07/1936701shaista.k…
eSimError in opening existing project2019-07-27 27/07/1934701Sufi8118
eSimError which doesnot open my project file.2019-07-27 27/07/1938101indrajit1…
eSimki-Ng convertion not happening2019-07-27 27/07/1935901chalapath…
eSimregarding : Error2019-07-27 27/07/1937201bvanand
eSimdevice modelling tab empty2019-07-27 27/07/1940001probeer.s…
eSimregrading package2019-07-27 27/07/1934301chjayaram
eSimpython plot ouput missing2019-07-27 27/07/1939101shaista.k…
eSimsimulation output is not getting2019-07-27 27/07/1937601anoop.eg
eSimsimulation can't complete2019-07-27 27/07/1938901travindra
eSimComponent values dialog box will not get open2019-07-27 27/07/1932801conquista…
eSimhow to solve error 32019-07-27 27/07/1936402anoop.eg
eSimRegarding selection of footprints2019-07-27 27/07/1933501sebin
eSimIn kicadtongspice conversion, source details are not appearing2019-07-27 27/07/1936701janibasha
eSimRegarding Astable Vibrator output2019-07-27 27/07/1933001conquista…
eSimDuring Simulation the below error is showing2019-07-27 27/07/1936201manoj1313
eSimerror while simmulation2019-07-27 27/07/1931701sesidhar
eSimsir i am unable to simulate please help, getting these errors2019-07-27 27/07/1935801sesidhar
eSimunable to simulate the circuit output2019-07-27 27/07/1931702madhurak
eSimIssue with viewing OUT22019-07-27 27/07/1934601sebin
eSimerror(5) Power Flag2019-07-27 27/07/1935001gopikrish…
eSimafter placing the power flag2019-07-27 27/07/1932101travindra
eSimMultiple item C1(unit1)2019-07-27 27/07/1928401manishara…
eSimeSim wkhp 2019 task22019-07-27 27/07/1933701probeer.s…
eSimConflict problem between pin security.2019-07-27 27/07/1939001revansidh
eSimerror type2 information2019-07-27 27/07/1935601gubbanave…
eSimfor ERC error2019-07-27 27/07/1935402travindra
eSimSir what is the assignment need to be submitted in esim after making the connec…2019-07-27 27/07/1938201deviM
eSimWire connection regd2019-07-27 27/07/1932401Devibhaga…
eSimConnection of Global label connection2019-07-27 27/07/1931501pushpbit
eSimcomponent placement2019-07-27 27/07/1931501rajusastra
eSimCircuit regd2019-07-27 27/07/1933001Devibhaga…
eSimPlease explain what to do with the hardware I have received2019-07-27 27/07/1929001deviM
eSimPLEASE EXPLAIN ABOUT THE ASSIGNMENT TITLE I NEED TO COMPLETE TODAY2019-07-27 27/07/1934101deviM
Pythonenrollment for next python course2019-07-23 23/07/1933001rittick
FOSSEE LaptopHelp to restore external USB hard disk2019-07-19 19/07/1932000sethbharat
eSimSchematic contains unknown model2019-07-16 16/07/1934401manishara…
eSimPin Not connected2019-07-15 15/07/1936201manish.sh…
eSimopenprojectfile() takes only a single file name2019-07-15 15/07/1937501manishara…
OpenFOAMMultiple AMI, decreasing time step.2019-07-15 15/07/1947601sg_03
eSimeSim_devices not showing at the time of schematic...2019-07-14 14/07/1934911sharadjag…
eSimIssue in eSim Project2019-07-14 14/07/1938901nwyawahare
eSimlibrary for lm555n in CvPcb window2019-07-13 13/07/1937801janibasha
eSimProject Submission2019-07-12 12/07/1935502samkarthik
eSimFoot Print Mapping2019-07-12 12/07/1935701samkarthik
eSimNot able to select any footprint2019-07-12 12/07/1937201vishalppa…
eSimSetting parameters for PCB2019-07-12 12/07/1931801vishalppa…
eSimError while Simulating2019-07-12 12/07/1933501samkarthik
eSimafter reading netlist footprint error occur2019-07-12 12/07/1932701ashishrag…
eSimschematic of the assignment eSIM not run(RC code:1263)2019-07-12 12/07/1930901subha983@
eSimregarding connection of components RC10632019-07-12 12/07/1931601shahaji18…
eSimCouldn't able to find out the footprint for v2, v32019-07-12 12/07/1937201chalapath…
eSimError while doing schematic Creation2019-07-11 11/07/1936501samkarthik
eSimRegarding CvPCB2019-07-11 11/07/1932801shaista.k…
eSimerror while opening phython plotting editor2019-07-11 11/07/1934601ashishrag…
eSimPayment process for eSim coordinators workshop 27 july 192019-07-10 10/07/1934301rbbhamare
eSimCvPCB does not read Footprints2019-07-10 10/07/1935001madhurak
eSim1182 uploaded successfully for footprint of lm741 i follow the same with 7805 i…2019-07-10 10/07/1933701revansidh
eSimProject File Name2019-07-10 10/07/1935301sanjay.bh…
DWSIM.ERROR IN POWER CALC OF PUMP2019-07-09 09/07/1941101kristandon
eSimWhen convert kicad to Ng it shows a window of unknown model lm_7412019-07-09 09/07/1934801revansidh
eSimWhile checking electrical rules it gives error at input and output label where …2019-07-09 09/07/1936602revansidh
eSimLm741 this component is not appeared under eSim_Devices so what is a solution …2019-07-08 08/07/1939101revansidh
eSimafter generation of gerber file then save it and when i type ctr+alt+T that win…2019-07-08 08/07/1935401revansidh
eSimeSim Coordinator Workshop Assignment Submission2019-07-08 08/07/1936202rbbhamare
eSimRegarding eSim Coordinator Workshop Assignment Submission2019-07-07 07/07/1934701rbbhamare
eSimProblem in Selection of Lm_7412019-07-07 07/07/1936201pushpbit
eSimMapping components with footprints and also onwords all video is not playing …2019-07-06 06/07/1935801revansidh
eSimMapping components with footprints this video is not played in spoken tutorial …2019-07-06 06/07/1934201revansidh
eSimRegarding Uploading of Assignment-RC No-14842019-07-06 06/07/1935701navjot.16…
eSimLM_741 is not available in eSim_Subckt filter2019-07-05 05/07/1936802bvsjaipur
eSimError During Simulation of Circuit in eSim2019-07-04 04/07/1937601navjot.16…
eSimError During Simulation of Circuit2019-07-04 04/07/1933501navjot.16…
Affordable-LaptopIssues with Wi-Fi2019-07-04 04/07/1937703prarthjeet
ScilabImplementasi ImageDataStore funtion In Scilab2019-07-04 04/07/1944301ariev_arc…
eSimInstallation of esim(Python Package issue)2019-07-03 03/07/1935801Shmscetam…
Scilabparticipants are not received online certificate2019-07-03 03/07/1941501gopal@1972
Affordable-LaptopCould you help us to get affordable Laptops to our college RC ID:14722019-07-03 03/07/1937702gopal@1972
Affordable-LaptopMy RC NO.1472, We haven't received any LAPTOPS from IIT-B2019-07-03 03/07/1934301gopal@1972
eSimMy RC NO.14722019-07-03 03/07/1939401gopal@1972
eSimAssignment is tough and after watching spoken tutorial morethan three times no…2019-07-02 02/07/1948103bvsjaipur
eSimI hope the Assignment 2 is attached instead of assignment 12019-07-02 02/07/1948303gopal@1972
Affordable-LaptopOperating System2019-07-01 01/07/1934001SriVidhya
DWSIMNot responding error2019-06-29 29/06/1945004Nimisha
OpenFOAMInlet Velocity2019-06-28 28/06/1950202moghimi49…
ScilabXCOS MASKED SUPERBLOCK EDITOR2019-06-27 27/06/1947102danielhar…
DWSIMError while accessing compounds2019-06-26 26/06/1944201Paritosh
ScilabLeft shift operaion and combining 3char to form an int value2019-06-26 26/06/1943001Likhitha_…
Pythonunable to download certificate for may course2019-06-25 25/06/1937001mbhush303
Affordable-LaptopI want to transfer my data from windows pc to debian laptop2019-06-24 24/06/1937002saiplanner
ScilabpyImport -scipython2019-06-20 20/06/1947201sneha
ScilabProblems with Image on GUI2019-06-18 18/06/1946201Josiane
ScilabRead several csv files2019-06-18 18/06/1943801AnimalA
ScilabPerformance between Windows and Linux2019-06-14 14/06/1953001pbies
eSiminstallation2019-06-12 12/06/1940701bvnr_s
Affordable-LaptopAC adapter for the affordable laptop2019-06-12 12/06/1933601sethbharat
ScilabScilab to xcos and xcos to scilab communication2019-06-12 12/06/1950201GirijaB
ScilabDependency file in scilab2019-06-10 10/06/1941601Keerthi_v…
ScilabPlotting problem2019-06-07 07/06/1945601minio373
ScilabUsing Clear Command in Examples with Dependency Code(s) - TBC Review2019-06-04 04/06/1940702Parmanand…
eSimSchematic contain unknown model "inv2x"2019-06-01 01/06/1943502Kunal
PythonPython enrollment2019-06-01 01/06/1938501Prikshit
DWSIMR.O desalination2019-05-17 17/05/1952401kavin
DWSIMCustom modeler2019-05-17 17/05/1949701kavin
eSimWhen trying to convert kicad to ngspice it is showing "your schematic contain u…2019-05-08 08/05/1950801bhanuprak…
ScilabCandycrush code2019-05-07 07/05/1970901luisdri
ScilabScilab/Matlab Problem.2019-05-05 05/05/1959201cassar
ScilabRegarding Symbolic Tool Box2019-05-05 05/05/1945901piratlasr…
ScilabRegarding TBC on Scilab2019-05-04 04/05/1955606trulyajays
Scilabhow to work on scilab2019-05-04 04/05/1950102Venkatara…
ScilabHow to use scilab2019-05-04 04/05/1946301Venkatara…
Scilabregarding data sets2019-05-04 04/05/1945201gusha
Scilabscilab doubt2019-05-04 04/05/1947002ravi2544
ScilabScilab codes and its results will be allowed to quote in publications, if i am …2019-05-04 04/05/1947601Sathya
Scilabhalf wave rectifier model execution problem2019-05-03 03/05/1963801venkatana…
DWSIMclassic extractive distillation with 2 simple columns,  with water, ethanol and…2019-04-29 29/04/1962801SvenderMa…
DWSIMNot able to download the codes for Textbook Companion Project2019-04-24 24/04/1951201tangli666
Scilabusing cameras with Scilab and IPCV2019-04-10 10/04/1952901egge_d
PythonHow to keep the proxy setup active till the end of execution2019-04-10 10/04/1942601tutu10
PythonWhere to submit screening task2019-03-31 31/03/1951801Sajag
Pythonunable to attempt quiz62019-03-31 31/03/1943801Amrutha
ScilabApplying Filters to signals2019-03-28 28/03/1972801lgunseor
DWSIMReaction manager2019-03-26 26/03/1976401Aybiee
FOSSEE Laptophow to uninstall debian and install windows 102019-03-26 26/03/1941400monojgoya…
Affordable-LaptopThe 1 Tb hard disk is automatically de-mounting2019-03-25 25/03/1946101saiplanner
Affordable-LaptopUnable to access update files for off-line update2019-03-22 22/03/1941401sethbharat
ScilabMODULUS in XCOS2019-03-20 20/03/1962101raghu7862
PythonPython fossee fellowship reexam2019-03-19 19/03/1952701rushic24
eSimunable to use esim_pspice library components2019-03-18 18/03/1949701Malli
OpenModelicaNot installed on macos2019-03-16 16/03/1946801amol_gp
Affordable-LaptopI want to install Linux into my hard disk instead of Flash Drive, How can I do …2019-03-13 13/03/1945801Kishan
DWSIMequillibrium reactor2019-03-12 12/03/1977102madhur14
eSimAbout changing the course2019-03-09 09/03/1948702angadiroh…
eSimabsence of component in library2019-03-08 08/03/1953301shivanshu
PythonSelf Learning Course March/April 20192019-03-06 06/03/1951202meeraj
ScilabHelp a newbie; How to implement an equation?2019-03-05 05/03/1953601Throwaway
eSimIC subcircuit cannot found2019-03-04 04/03/1952201angadiroh…
Osdag2D views- report creation2019-03-04 04/03/1959901nandanam1
PythonSelf Workshop2019-03-02 02/03/1947503shweta_k
ScilabBuild a Band-pass Butterworth Filter2019-02-27 27/02/1954401UnknowStu…
ScilabORIGINALITY OF EXAMPLES2019-02-25 25/02/1954301prankurti…
eSimError while opening python plotting Editor. Please look at console for details2019-02-24 24/02/1972701KatakamBh…
Affordable-LaptopWPS Office installation in Thinbook 13102019-02-22 22/02/1953703mahesh464
ScilabCreate Xcos block with string parameter2019-02-14 14/02/1961601dagomar
ScilabHow to plot with 2 vector as horizontal axis.2019-02-13 13/02/1954602yanfanbl
RWhat after registraion?2019-02-13 13/02/1977702dishanisen
eSimCan not run the eSim software in Windows.2019-02-07 07/02/1964301ANNESYA_B…
OpenFOAMNo creation of processed files even after running.2019-02-06 06/02/1953801Rohan_Sri…
Affordable-LaptopNot able to hear sound2019-02-02 02/02/1969801sethbharat
eSimCan you provide the link for eSim installation for Windows 8?2019-02-01 01/02/1958701Subhashini
ScilabExample Naming Convention2019-01-30 30/01/1963602Parmanand…
RBook proposal category2019-01-30 30/01/1971001MBhubanand
eSimHow to change the working directory of eSim?2019-01-30 30/01/1963102Subhashini
ScilabQuery regarding XCOS Super_f block2019-01-24 24/01/1966801vamsi7862
Scilabpolar graph : invisible axis2019-01-17 17/01/1952401Bilaz38
eSimSISO Experiment2019-01-15 15/01/1962701priyachet…
Affordable-LaptopAugmenting memory2019-01-15 15/01/1951401Manoj
eSimError in simulating the circuit12019-01-14 14/01/1958701priyachet…
eSimError in simulating the circuit2019-01-11 11/01/1968901priyachet…
DWSIMIssues related to DWSIM in mac2019-01-08 08/01/1967601viggi08
eSimWhere is eSim windows installer available?2019-01-08 08/01/1929101SJith
eSimsimulation error2019-01-07 07/01/1974805priyachet…
Affordable-LaptopReminna Remote connection in Debian Thinbook and RDP connection from Windows PC2019-01-05 05/01/1981502mahesh464
ScilabAbout Xcos project2019-01-02 02/01/1963401CBChoudha…
ScilabBook proposal2019-01-02 02/01/1959201CBChoudha…
Scilab'syms' function2018-12-29 29/12/1879401Akhtar
PythonQuiz-6 -- Unable to continue2018-12-28 28/12/1854801Bhaghyesh
PythonPractice data structures_exercise_question_82018-12-26 26/12/1854301Bhaghyesh
DWSIMupload user define compound2018-12-23 23/12/1859701mehul09
ScilabEquivalent function for heaviside in scilab2018-12-20 20/12/18147701Akhtar
DWSIMDWSIM Wastewater treatment process2018-12-20 20/12/1876601Shubhashi…
ScilabI sent a book proposal some days before . I made mistakes in proposal .I want t…2018-12-18 18/12/1861401CBChoudha…
Affordable-Laptopnetwork connectivity2018-12-18 18/12/18335611rucha
Scilab Toolboximage processing functions are not responding2018-12-18 18/12/1861702Yogin
OpenFOAMChoosing exact boundary conditions2018-12-18 18/12/1869701razon1312…
ScilabGet state vectors of state space block during simulation2018-12-17 17/12/1855303alexandru
OpenFOAMRegarding Proposal2018-12-17 17/12/1856001chetantho…
OpenFOAMQuery regarding heat flux boundary condition in OpenFOAM2018-12-16 16/12/1855801gikkutom
Affordable-LaptopUnable to connect laptop with smart tv2018-12-15 15/12/1858002SadasivamM
Affordable-LaptopMalfunctioning of the laptop2018-12-15 15/12/1849801Priya_siv…
OpenFOAMHeat flux boundary condition in OpenFOAM2018-12-15 15/12/18154901gikkutom
Affordable-Laptopkdenlive app image was working fine - now freeze in timeline, position marker a…2018-12-10 10/12/1853601ranipv
eSimReverse Characteristics of Diode2018-12-08 08/12/1864901Gloria
eSimCurrent source in eSim2018-12-08 08/12/1857901Gloria
Affordable-LaptopVLC MEDIA PLAYER2018-12-07 07/12/1850201GSMahapat…
Affordable-LaptopUninstallation2018-12-07 07/12/1849311GSMahapat…
eSimInstallation of eSim software2018-12-06 06/12/1867502SAI14
Affordable-Laptopmissing qt and wxt terminals from gnuplot 5.2.52018-12-06 06/12/1882006ranipv
DWSIMProblem with "Valve"2018-12-05 05/12/1868903ferbg
ScilabProcessor in Loop, Hardware in Loop etc.2018-12-04 04/12/1887601dalaylama
DWSIMfind the enthalpy in python script2018-12-04 04/12/1862101mehul09
Affordable-LaptopIssue with offline update 32018-11-28 28/11/1855301manojkuma…
eSimSoftware download2018-11-28 28/11/1867301sweety
Affordable-LaptopError occured while updating the System2018-11-27 27/11/1858101JitendraB…
Affordable-LaptopEven after installing updates 2 and 3 the issue persist2018-11-26 26/11/1860701Jothi
Affordable-LaptopISO file of OS(Debian)2018-11-26 26/11/1860702JitendraB…
eSimUnable to find esim installer2018-11-26 26/11/1858101Prakash14
Affordable-LaptopDisk space (won't let me post unless title is longer than 12 characters, hence …2018-11-25 25/11/1872001Manoj
Affordable-LaptopLED above F3 key2018-11-24 24/11/1860502Manoj
ScilabHow to use the oscilloscope?2018-11-23 23/11/1865601Batmano
DWSIMRigourous Distillation column error with image file2018-11-21 21/11/1877601DoshiVarun
Affordable-LaptopNo LAN Port to the device. How can I use LAN wired connections to this Machine?…2018-11-21 21/11/1854303balupp
Affordable-Laptopunable todetect sd card2018-11-15 15/11/1851801peeyushte…
Affordable-LaptopProblem with Voice Record2018-11-15 15/11/1856801laxman-cs
Affordable-LaptopRegarding Devanagari Typing2018-11-15 15/11/1851611Vikram
Affordable-LaptopProblem with WiFi connection2018-11-15 15/11/1866602Vikram
Affordable-LaptopWEBCAM app: Videos inaccessible2018-11-15 15/11/1853402sumedha_m…
Affordable-LaptopInaccessible Hard disk2018-11-15 15/11/1847201sumedha_m…
Affordable-LaptopBattery Drainage2018-11-12 12/11/1844801Kishan
OpenFOAMBoundary condition at inlet2018-11-11 11/11/1876002sourav0921
Affordable-LaptopTo update Windows 10 software version in Linux OS (Thinbook)2018-11-04 04/11/1868801christoph…
Affordable-LaptopCan not play vedio2018-11-03 03/11/1853911Dr_kalpana
DWSIMerror in a kinetic reaction2018-11-01 01/11/1871901mehul09
Scilabwave synthesis analysis using laplace transform2018-10-31 31/10/1870401priyadars…
Affordable-LaptopAffordable laptop with Hard disk2018-10-31 31/10/1873913dadas
Affordable-LaptopUBS Port not functioning2018-10-31 31/10/1859211sharma49
Affordable-LaptopNo stereo sound2018-10-31 31/10/1851012b4balu
ScilabMoving average2018-10-26 26/10/18127001Noiser1234
Affordable-LaptopSound not working!2018-10-26 26/10/1852911mohamed.ld
Scilabcsim message "Excessive work done on this call"2018-10-26 26/10/1887401felipetoz…
ScilabData import from clipboard2018-10-25 25/10/183918102Noiser1234
ScilabString Handling in Scilab Xcos V5.5.22018-10-17 17/10/1870501Poornacha…
ScilabDifferent tasks PLEASE HELP2018-10-14 14/10/18446601joosep
eSimpcbnew layout straight to ngspice?2018-10-08 08/10/1868501coupsdeba…
DWSIMerror in LLE ternary graph utility2018-10-08 08/10/1885302mehul09
Scilabscetoexe not working2018-10-05 05/10/1873701anupam
eSimNot able to open examples in esim, its showing " The system cannot find the spe…2018-10-01 01/10/1863901nsnairtvm
eSimUnable to proceed with Setup program2018-09-30 30/09/1855201ksmk31
OpenFOAMFoam::error::printStack(Foam::Ostream&) at ??:?2018-09-27 27/09/18193501razon1312…
OpenFOAMContinuity error cannot be removed by adjusting the outflow.2018-09-19 19/09/18187701razon1312…
ScilabVoronoi Diagrams2018-09-17 17/09/1872302ritu_2306
DWSIMdoubt regarding reaction furnace and condenser2018-09-15 15/09/1868501rajat
Pythonlinspace is not found . i have window 32 bit. plz help me out .2018-09-15 15/09/1850801sushma
ScilabWhat is algebraic Loop? When it Occurs in Xcos? How to Overcome it?2018-08-31 31/08/18179801arundsona…
ScilabRegarding Scilab commands xcorr2018-08-29 29/08/1863201Ajay
DWSIMError in stichiometry2018-08-24 24/08/1871803drmankarj…
DWSIMSimulation of process model for n number of data points or observations2018-08-24 24/08/1864401drmankarj…
DWSIMDevelopment of graphical user interface in Excel2018-08-24 24/08/1864501drmankarj…
eSimwhile opening the schematic window this error occur?2018-08-13 13/08/1873001durairajm…
ScilabSet logarithmic scale in Sgrayplot2018-08-02 02/08/1869501Matias
DWSIMabout flowsheet submission2018-07-29 29/07/1882801mehul09
PythonThe circulate.zip error2018-07-27 27/07/1859801prateekvy…
FOSSEE LaptopFOSSEE OS linke is down2018-07-23 23/07/1863101mrf3
DWSIMabout a scrubber design2018-07-22 22/07/1894101mehul09
DWSIMPipe unit operation2018-07-14 14/07/1875501Rick63
OpenFOAMConvergence in Open Foam Simulation2018-07-13 13/07/1868901ben
DWSIMAbout internship's forms2018-07-05 05/07/1872311mehul09
OpenFOAMSalome bentpipe to OpenFOAM2018-07-02 02/07/1872301Happys5
SBHSWhat is Error while running the Python based "run" file ?2018-06-29 29/06/1866601Moh005
PythonRegarding quiz 62018-06-27 27/06/1861201Akash_1998
Scilaba general forum question2018-06-25 25/06/18104401maxcy
Scilabfunction return2018-06-25 25/06/1863705maxcy
ScilabSciLab 6.0.1 and Symbolic Toolbox2018-06-25 25/06/18131802kamienna.…
DWSIMSimulating a condensor2018-06-24 24/06/1877601Aftab
Scilabtutorial 15 not working2018-06-23 23/06/1866600maxcy
ScilabDouble integration by Scilab2018-06-21 21/06/1891901gu0813421…
DWSIMPython Documentation For DWSIM2018-06-21 21/06/1896801ParaK
ScilabFFT processing block in XCOS2018-06-21 21/06/18138801shrinivas…
DWSIMBubble Column Reactor Substitute2018-06-20 20/06/1874601ParaK
ScilabGet all the file name of a directory in a list2018-06-19 19/06/1863701sarahi
Scilabdebugger acting screwy2018-06-19 19/06/1859400maxcy
ScilabI am finding it difficult to interpret this graph2018-06-18 18/06/1865500chandrash…
Scilabmore debugger questions2018-06-18 18/06/1866901maxcy
ScilabTemperature Distribution in a Square2018-06-17 17/06/1870201Karthik
Scilabprint Question2018-06-17 17/06/1859701maxcy
ScilabGaussian Elimination Tutorial again2018-06-17 17/06/1861300maxcy
Scilabposting question from the tutorial link doesn't work2018-06-17 17/06/1870301maxcy
Scilabdebugging a tutorial example2018-06-17 17/06/18109602maxcy
Scilabplotting a deff2018-06-16 16/06/1856501maxcy
Scilabhow to check if a random process in wss in scilab2018-06-16 16/06/1862401chandrash…
Scilabdebugging SciLab examples2018-06-15 15/06/1868001maxcy
Scilabdeveloping in SciLab2018-06-15 15/06/1858201maxcy
ScilabGaussian Elimination Tutorial2018-06-14 14/06/18115300maxcy
Scilabscilab posting question2018-06-14 14/06/1869801maxcy
Scilabspoken_tutorial site2018-06-11 11/06/1862401maxcy
ScilabMAC, can´t write to a file2018-06-10 10/06/1869401ot
eSimquestion and answer list out of date?2018-06-07 07/06/1859101johnCrobi…
ScilabScilab - Ballistic problem2018-06-05 05/06/1868600Yetem
eSimwhen I download eSim installer for windows Norton secrity rejects it2018-06-04 04/06/1863301johnCrobi…
DWSIMCompound not available2018-06-01 01/06/1875301Hemanand
DWSIMhelp about vinyl chloride2018-05-28 28/05/1863701M_A_P
DWSIMCrude Desalter Simulator2018-05-27 27/05/1871101vbs305
DWSIMseparator column in compound separater2018-05-26 26/05/1863801bheemesh
DWSIMfixing the output data for a given problem2018-05-26 26/05/1860501bheemesh
Scilab ToolboxChecking stationarity of a random process2018-05-26 26/05/1858201chandrash…
ScilabUnable to install FOSSEE Optimisation toolbox2018-05-25 25/05/1879501arian
ScilabHow to find inverse laplace transform in scilab2018-05-24 24/05/18169901chandrash…
PythonError in print statement2018-05-22 22/05/1851501manavsara…
Scilabscale of axes2018-05-22 22/05/1865201RudiLehn
DWSIMConversion reactor2018-05-22 22/05/1873104srwasan
DWSIMUNIQUAC package with default flash doesnot converge.2018-05-18 18/05/1872203teja9006
OpenFOAMUsing multiInteraction type patchInteractionModel2018-05-16 16/05/1877201surajiitk
eSimlooking for a VCO component2018-05-15 15/05/1858301cuichi
ScilabScilab-Isosurfaces2018-05-03 03/05/1865301lacastelos
ScilabHelp Scilab Isosurfaces2018-05-03 03/05/1860501lacastelos
ScilabIsosurfaces Scilab2018-05-03 03/05/1871701lacastelos
ScilabIsosurfaces - Help Scilab2018-05-03 03/05/1870401lacastelos
ScilabHow to do range filter of image??2018-05-02 02/05/1869001anil_mca4
ScilabHow do I retrieve a file from scilab that seems like it has been deleted?2018-04-28 28/04/1862901frida
ScilabError installing symbolic toolbox2018-04-25 25/04/1879201dhruvpalr…
DWSIMBrine evaporation in DWSIM2018-04-21 21/04/1871101nagarajka…
PythonRegarding review of given question2018-04-18 18/04/1857201darpitkau…
Scilabvery poor .pdf file2018-04-11 11/04/1861803maxcy
Scilabcompile and run is screwed up2018-04-11 11/04/1865202maxcy
eSimproblem with the analysis tab2018-04-06 06/04/1864501nivedita
ScilabMux/Demux vs Bus 22018-04-05 05/04/1865501Antonio
ScilabMux/Demux vs Bus2018-04-05 05/04/1877301Antonio
Pythonregarding task submision2018-04-04 04/04/1864102saitejmad…
DWSIMRegarding adding compuonds in DWSIM2018-04-04 04/04/18145901Priyam_Na…
DWSIMAbout unit operations in DWSIM2018-04-03 03/04/1879601Parth
OsdagOSDAG installation problem2018-04-02 02/04/1872001Yallamand…
Pythonhow to download certficate2018-03-31 31/03/1867001dharmesh7
eSimYour schematic contain unknown model lm317at2018-03-31 31/03/1879901sainathan…
Pythoncan miss any quiz generate problem in issue the certificate2018-03-30 30/03/1856001Abhi9839
ScilabCPGE MODULE Bode parms2018-03-30 30/03/1878401AVISHVAk
Pythoncan't attempt the quiz 52018-03-30 30/03/1859401Bhargavi
Pythoncan't attempt the quiz 62018-03-30 30/03/1855401Tulasi
eSimError while plotting python plot editor. How do i rectify it?2018-03-29 29/03/1871001Sushmitha
eSimAbout Kicad library2018-03-29 29/03/1869001PoonamCha…
Pythonmistakenly opened the quiz 12018-03-29 29/03/1861101dharmesh7
PythonQuize3 ragarding assignment submission #2018-03-28 28/03/1855601tejesh002
eSimkey error in source2018-03-28 28/03/1870301kavyadaya…
Osdagosdag is not opening2018-03-27 27/03/1873101sohilreddy
OsdagError while installation2018-03-26 26/03/1869801mokaeswar
PythonError in downloading certicate2018-03-25 25/03/1861501chetan_g
eSimHow to load components library2018-03-24 24/03/1871301ArshadRah…
eSimError while opening python plotting Editor. Please look at console for more det…2018-03-23 23/03/1878002SravaniIn…
Scilabhow to identify exe file in Scilab2018-03-23 23/03/1868102padmavati
Scilab ToolboxOctave Interface Toolbox not installing (FOSSEE 2018 Fellowship)2018-03-23 23/03/1856201a_Xiu
eSimShows that schematic contains unknown model2018-03-23 23/03/1869101VSKhamank…
Osdagexample.osi file not opening2018-03-22 22/03/1869601Subrata_1…
OsdagLAUNCHING OSDAG2018-03-22 22/03/1888302Hoshil_Pa…
eSimERROR: Your schematic contain unknown model jfet_n_pspice2018-03-22 22/03/1873802SravaniIn…
DWSIMCATALYST is not present2018-03-22 22/03/1881702e.santosh
eSimabout coding2018-03-21 21/03/1865201PoonamCha…
eSimWhy esim software is closing after few seconds after installing it2018-03-20 20/03/1870601ArshadRah…
OsdagThis is a Test Question for OSDAG2018-03-19 19/03/1871101user100
PythonDoes The yaksh course BPPY is availble Through out the year?2018-03-19 19/03/1893401dave
eSimerror while opening python plotting editor2018-03-19 19/03/1886501Mayankb23
ScilabScilab 2C toolbox2018-03-19 19/03/1874801Akhil
eSimComponents missing in " Choose Component "2018-03-19 19/03/1867201Mayankb23
Scilabwhat is this toolbox2018-03-18 18/03/1862301maxcy
Scilabwindows version of scimax2018-03-18 18/03/1876201maxcy
Scilabcompiling from scilab2018-03-18 18/03/1876702maxcy
eSimUnable to load all the components in the respective libraries2018-03-18 18/03/1864701SravaniIn…
Python'linspace' not defined in canopy editor2018-03-17 17/03/18189401ankurrj5xe
Scilab ToolboxError while installing ocatave interface toolbox, required for DSP toolbox2018-03-17 17/03/1860701iakashp
eSimUnable to create a project2018-03-17 17/03/1892701SravaniIn…
eSimError in project creation2018-03-17 17/03/1873701Udit
eSimerror while opening a schematic2018-03-16 16/03/1869701vaishnavi…
eSimesim source i am not able to access2018-03-16 16/03/1871901ELDHO_SOY
eSimerror with source detail2018-03-16 16/03/1867801shubhpriya
Pythoni have a list assume 10 data in the list. If i want to remove number 3 to 8 dat…2018-03-16 16/03/1855801jitendra
Scilabcall_scilab help file questions2018-03-16 16/03/1866900maxcy
Osdagosdag software not opening2018-03-15 15/03/18104401Subrata_1…
ScilabDesign of fir filters using windowing technique2018-03-14 14/03/1878000chandrash…
PythonWhere can I find the data files and images required for the course?2018-03-13 13/03/1879101anuragr
eSimua741 pin details2018-03-13 13/03/1867602ashish
eSimAll the components are not downloaded.2018-03-12 12/03/1867901gaytripra…
PythonWhere can i found Python course?2018-03-12 12/03/1859402marmikp58…
eSimerror: dos not contain any kicad netlist file for conversion2018-03-12 12/03/1879601shubhpriya
Scilabscilab and linux2018-03-11 11/03/1878701maxcy
Pythonimport error2018-03-11 11/03/1855901tharunare…
Scilab Toolboxlinux and Scilab2018-03-10 10/03/1865701maxcy
PythonInterface to submit questions.2018-03-09 09/03/1877901shubhansh…
ScilabScilab Symbolic Toolbox2018-03-09 09/03/18220502maxcy
Scilabatoms toolbox and syms2018-03-08 08/03/1879500maxcy
OpenFOAMWhy Initial residual is not equal to the final residual obtained from the previ…2018-03-07 07/03/18110001ankur_garg
eSimcannot open project2018-03-07 07/03/1889403agrahara
eSimissue regarding number of ports2018-03-05 05/03/1867401anudeepbo…
ScilabConvolutional Neural Network2018-03-05 05/03/1894001advait
Scilabis the cloud working2018-03-05 05/03/1867801maxcy
Scilabevans code example not working2018-03-05 05/03/1883501maxcy
eSimPython plotting missing2018-03-04 04/03/1872601sounndarr…
Scilabwhat is syms and how does it affect the code2018-03-04 04/03/18256802maxcy
Scilabsgrid from definition example2018-03-03 03/03/1865801maxcy
eSimNot able to start up the schematics.2018-03-03 03/03/1871301bunty.him
Scilabrerunning cloud code2018-03-03 03/03/1870101maxcy
Scilaba warning message2018-03-03 03/03/1879601maxcy
Scilabimporting .sce file2018-03-03 03/03/1894102maxcy
eSimCannot find 'eSim_' files in the components library2018-03-02 02/03/1867401rishabhsm…
Scilabwhy do we plot digital filter spectrum on 0 - 0.5 only2018-03-02 02/03/1869801chandrash…
Scilabxgrid() is a no show2018-03-02 02/03/1870502maxcy
Scilabcopying code doesn't wotk2018-03-01 01/03/1870702maxcy
ScilabConvolutional Neural Network using the Caffe model2018-03-01 01/03/1877900advait
eSimsimulation problem in cmos inverter2018-03-01 01/03/1870502ajinkya_b…
eSimCan't seem to create a new project2018-03-01 01/03/1881702rishabhsm…
Scilabcsim coding question2018-03-01 01/03/1865101maxcy
Scilabcloud book examples not working2018-02-28 28/02/1878601maxcy
Scilabroot locus code from scilab book2018-02-28 28/02/18143002maxcy
Pythoncanopy not available2018-02-28 28/02/1853601HarishSin…
Scilabroot locus problem2018-02-28 28/02/1870704maxcy
Scilabroot locus example problem2018-02-28 28/02/1865601maxcy
Scilabevans example problem2018-02-28 28/02/1865101maxcy
Scilabevans example problem2018-02-28 28/02/1866001maxcy
Scilabevans example problem2018-02-28 28/02/1865501maxcy
DWSIMDehydration Plant Simulation2018-02-27 27/02/1866702HaareshAu…
ScilabReview duration2018-02-27 27/02/1863801dhruvpalr…
eSimSquare wave in eSim2018-02-27 27/02/1869202ajinkya_b…
Scilabmatrix operator2018-02-24 24/02/1870704maxcy
eSimNon available componant2018-02-24 24/02/1861301jrangaraj…
Scilabcode syntax question from example code2018-02-23 23/02/1868902maxcy
FOSSEE LaptopDIFFICULTY IN INSTALLING AND RUNNING OPTIMIZATION TOOL BOX2018-02-23 23/02/1859301varadaraj…
ScilabAlternate instruction in scilab for filtic in matlab2018-02-23 23/02/1895601Raji
Scilabcode syntax question2018-02-22 22/02/1866902maxcy
ScilabMatlab equivalent2018-02-21 21/02/1887603maxcy
eSimUNKNOWN MODEL-lm555n2018-02-20 20/02/1869501shekhar
DWSIMDehydration Plant2018-02-19 19/02/1876001HaareshAu…
ScilabCan anyone help me figure out how to work with microdaq2018-02-16 16/02/1876501chandrash…
eSimtransient analysis2018-02-16 16/02/1879002sounndarr…
Scilabsetup GUI home page2018-02-16 16/02/1868102maxcy
Scilab ToolboxFOSSEE optimization toolbox does not load under Scilab 5.5.2/Windows 72018-02-12 12/02/1863402mottelet
Scilab-Arduinonot able to open the icon2018-02-10 10/02/1871402nilashri
Scilabregarding XCOS2018-02-10 10/02/1867802nilashri
eSimPython plot error-reg2018-02-05 05/02/1882302Jeevashub…
eSimWaveform generation2018-02-05 05/02/1870301KarthikaK
eSimvcc supply-reg2018-02-04 04/02/1869501Jeevashub…
DWSIMProble with opening DWSIM file into software2018-02-02 02/02/1891101sbdongare
eSimno python plot2018-01-26 26/01/1869801sounndarr…
DWSIMKinetic reaction2018-01-21 21/01/1876201Divyansh_…
eSimcommand not found2018-01-14 14/01/1886301sounndarr…
DWSIMRigorous Distillation2018-01-12 12/01/1899601Divyansh_…
DWSIMPFR step size error2018-01-11 11/01/1875001Rutuaj24
eSimhow to open a new project?2018-01-10 10/01/1882501VENKATTAP…
eSimPython Plot error2018-01-07 07/01/1882301shefali04
ScilabWorking with scilab (DSP Lab) and Texas instruments dsp processor2018-01-05 05/01/18141802chandrash…
eSimWhat exactly eSim is?2018-01-04 04/01/1868202siddheshc…
FOSSEE Laptopliblapack.so.3gf2018-01-03 03/01/1868501ulima
DWSIMDisplaying reaction results2017-12-31 31/12/1770801Divyansh_…
eSimHow to give inputs to the IC's2017-12-28 28/12/1780601A.Karthik
eSimHow to set a Path?2017-12-27 27/12/1773102VENKATTAP…
eSimHow to work with This Software in Laptop?2017-12-27 27/12/1769903VENKATTAP…
ScilabProblem with visualisatioin of output of chebyshev type one filter.2017-12-24 24/12/1780601chandrash…
DWSIMcan you suggest me the solution for the error I'm getting while designing metha…2017-12-22 22/12/1781301Harshali
Scilabinput function is behaving in a inconsist function2017-12-20 20/12/17178601chandrash…
eSimunable to give title of the project.2017-12-20 20/12/1771202A.Karthik
ScilabProblem with input command in scilab for reading mulitiple data2017-12-20 20/12/1768901chandrash…
Scilab2d graph. Powers of a variable.2017-12-16 16/12/1774211Abbas
ScilabProblem with design of iir lpf filter.2017-12-15 15/12/1773001chandrash…
eSimpython plotting error and global label error2017-12-15 15/12/1795001Vignesh
eSimesim installation problem2017-12-13 13/12/17153518shekhar
eSimgraphical error2017-12-12 12/12/1769602sounndarr…
eSimunable to use eSim sources2017-12-09 09/12/1790702amolbedar…
ScilabProblem in visualistion of the output2017-12-09 09/12/1774401chandrash…
ScilabProblem installing Scilab 6.0 on ubuntu 16.04 LTS2017-12-06 06/12/1788401chandrash…
ScilabSteps to install scimax toolbox on Scilab2017-12-06 06/12/1787901sudip.26
eSimconversion error, unknown component2017-12-02 02/12/1783603sounndarr…
ScilabFIR Filter design2017-12-01 01/12/1772201Akhtar
ScilabProblem finding the DFT of the sequence as the length of sequence increases2017-11-30 30/11/17222001chandrash…
OpenFOAMLooking for Solver for Three Phase Heat Transfer with phase change for Cryogeni…2017-11-29 29/11/1784601arezes
ScilabN point FFT calculation2017-11-28 28/11/1776101chandrash…
OpenFOAMResource persons for OPENFOAM Software.2017-11-22 22/11/1780001thprasads
eSimProblem in opening the schematic window after double clicking the esim icon.2017-11-15 15/11/1792214kksundari…
Scilabproblem matrix dimension2017-11-13 13/11/1774201Timmy
ScilabThe Weierstrass-Mandelbrot curve2017-11-12 12/11/1781001Deniro
eSimsteps to do after getting an approved mail2017-11-11 11/11/1767601AKSHAYA
eSimerror while using thyristor.2017-11-09 09/11/1781102sheena
eSimCircuit Rules check error in Gnd2017-11-07 07/11/1772701Gokul
eSimfinding input signal2017-11-06 06/11/1776701sounndarr…
eSimerror in ERC2017-11-06 06/11/1780907sounndarr…
ScilabWeiner kinchin relation code2017-11-06 06/11/1789501chandrash…
eSim'plot_data_i.txt' and 'plot_data_v.txt' files cannot be created. why is this ha…2017-11-04 04/11/1788103sheena
eSimerror while simulating the schematic.2017-11-02 02/11/1780102sheena
DWSIMDWSIM for membrane separation2017-10-30 30/10/17129001faya
OpenModelicaModelling a Spark Plug for simulation project.2017-10-30 30/10/1777701Leong
eSimabstract submission2017-10-28 28/10/1775601KarthikSr…
eSimCIRCUIT SIMULATION PROPOSAL FORM SUBMIT ERROR2017-10-24 24/10/1785402CHETAN1994
eSimlast date for circuit simulation2017-10-23 23/10/1776501sounndarr…
eSimComponents not Available2017-10-20 20/10/1777901dharm_007
eSimhow to simulate 555 timer based astable multivibrator with esim?2017-10-19 19/10/17108902anil
eSimLaunching esim on my pc.2017-10-18 18/10/1767605Telegenic
eSimproiect name error2017-10-18 18/10/1775401Abhilash_…
Scilab ToolboxA Missing Block (OTA) in Xcos tool box2017-10-16 16/10/1765401NarayanaK…
Scilab ToolboxIs a PHARMACY background STUDENT can develop a TCB2017-10-13 13/10/1759811prashant8…
ScilabHOW TO USE SCILAB FOR PHARMACY EDUCATION REGARDING ACTION AND REACTION OF CHEMI…2017-10-13 13/10/1771701prashant8…
PythonIs a computer background student can develop a TCB2017-10-13 13/10/1774501Anjusiva
eSimproposal form2017-10-11 11/10/1780601sjitm
eSimwhere can i find a 3-phase ac source.2017-10-10 10/10/1775401Abhinay123
eSimProposal Form for circuit simulation project.2017-10-09 09/10/17139501Abhinay123
DWSIMDownloading the Tutorials2017-10-03 03/10/1790701akash.son…
DWSIMIssue in DWSIM Software Installation2017-10-02 02/10/1796201akash.son…
ScilabGlitch in Scilab version 62017-09-17 17/09/1783601prnaren
DWSIMThree phase open-source library2017-09-13 13/09/1782701simon
DWSIMThree phase library open-source2017-09-13 13/09/1787001simon
DWSIMcan we use DWSIM for simulutions for a spray or rotay drier systems2017-09-07 07/09/17101601bhagathra…
OpenFOAMdiffusivity directional variables2017-08-30 30/08/1796501ashok
ScilabStand alone exe. from Scilab 6.0.02017-08-24 24/08/1799801antony
Scilab ToolboxInstallation problem2017-08-19 19/08/1772501SRS24
ScilabInverted graph2017-08-19 19/08/1777101rajeshbm
Pythonunable to install canopy2017-08-18 18/08/1778201ulfa
ScilabCommands: syms, laplace, ilaplace2017-08-15 15/08/17269701ojumut
DWSIMinternship details2017-08-14 14/08/1781301goyalakash
OpenFOAMchange of volume inside pipe2017-08-11 11/08/1791403ashok
Scilabinput problem2017-08-11 11/08/17166001jsant100
DWSIMRegarding Submission of flow sheet and its deadline.2017-08-07 07/08/1784501miral
eSimhai friends caan any one resolve the problem attached in images?2017-08-05 05/08/1775601mahesh
ScilabIncorrect polynomial operations?2017-08-04 04/08/1780001leohpaz
ScilabCan't convert old diagram (problem in version) while using To Workspace (xcos)2017-08-02 02/08/1783501leohpaz
OpenFOAMOpenFOAM Issue with Porous Media and Buoyancy2017-08-02 02/08/17560901rudhkul
Scilab Toolboxexample problem required for understanding.2017-07-31 31/07/1777001ravinder.…
DWSIMAssigning operating pressure for distillation column2017-07-27 27/07/1797401mbali20
ScilabParticleLabeling with IPCV toolbox command imlabel2017-07-26 26/07/1786201Hackmet
ScilabQuery regarding submission of code2017-07-20 20/07/1778301amitkumar…
ScilabIs it possible convert a PSPICE code to scilab code?2017-07-17 17/07/1787901amitkumar…
OpenFOAMvertical loading in interfoam2017-07-11 11/07/1786601hsai1991
OpenFOAMConvergence while using icoFoam2017-07-06 06/07/1798701ankur_garg
eSimUnable to load footprints while opening CvPcb2017-07-05 05/07/17121102HARISHBHAT
eSimUnable to map footprints2017-07-04 04/07/1783402HARISHBHAT
OpenFOAMSimulation Of Flow over cylinder with forward splitter plate2017-07-03 03/07/1787201maheshtom
ScilabImage in GUI2017-07-03 03/07/1791501jayati
eSimUNABLE TO INSTALL IN UBUNTU16.04 LTS2017-06-28 28/06/1783601mahesh
ScilabLab Migration Proposal2017-06-19 19/06/1782401dimple
ScilabProblem with xls_link Scilab tool2017-06-16 16/06/1784701MrWhite10
eSimCan't install eSim 1.1.2 on Ubuntu 162017-06-12 12/06/1789403pldissana…
OpenFOAMOpenFOAM-1.6.x Installation Error2017-06-07 07/06/1792301Samarendra
Scilabhttps://help.scilab.org/ not working2017-06-06 06/06/17105802ramprasad…
ScilabDubugging in Scilab2017-06-06 06/06/1790102ramprasad…
SBHSError while running program2017-06-01 01/06/1789501lalitchau…
ScilabImage processing performance2017-05-31 31/05/1789002Hackmet
Pythonhow to join the course2017-05-27 27/05/1781601anjU
Scilab ToolboxBlob Detection and Analysis2017-05-22 22/05/1779002teju5531
ScilabScilab problem2017-05-22 22/05/1786001skitlesas
ScilabScilab task problem2017-05-22 22/05/1785601skitlesas
ScilabNeed help with scilab task2017-05-21 21/05/1785101skitlesas
eSimeSim ibraries missing2017-05-20 20/05/1776201Franky
OpenFOAMDynamic Moving Mesh2017-05-20 20/05/1786001Samarendra
OpenFOAMHow to Create Baffles in Geometry2017-05-17 17/05/172535-11ankur_garg
Scilabscilab version 6 related problem2017-05-17 17/05/1792301ruchisingh
eSimPassing option to ngspice2017-05-15 15/05/1781502buleks
DWSIMstep size becomes too small error in plug flow reactor2017-05-14 14/05/17104001Nikhil
DWSIMdouble clicking not opening main editing window2017-05-12 12/05/1786801Nikhil
Scilab"Abort" command in Scilab 6.0.02017-05-08 08/05/17164602Hackmet
Scilabimage processing error in scilab2017-05-05 05/05/1787302gowtham22…
ScilabSample source file in book proposal form2017-05-05 05/05/1779801amitkumar…
ScilabError while opening scilab.2017-05-03 03/05/17138501gowtham22…
Scilabproblem with the opening environment window.2017-05-01 01/05/1796902GVP
DWSIMMulti component Distillation2017-04-25 25/04/17126701RajatSuva…
OpenFOAMHow to create a internal gate?2017-04-25 25/04/17125301hsai1991
OpenFOAMCannot find flow at bottom surface_slump test2017-04-25 25/04/1794604ashok
OpenFOAMplotting at a definite point2017-04-14 14/04/17101401SUBHANKAR
OpenFOAMgetting time-average flow fields within certain time interval2017-04-09 09/04/17158001SUBHANKAR
OpenModelicaHOW TO APPROACH MULTIBODY SYSTEM IN OPEN MODELICA2017-04-07 07/04/1785002DURAISAMY
ScilabQuestion for plotting 2D2017-04-05 05/04/17301403chanyau11…
OpenFOAMplotting skin friction coefficient2017-04-03 03/04/17212301SUBHANKAR
OpenFOAMlaminar separation bubble2017-04-02 02/04/1780701SUBHANKAR
OpenFOAMSnappyHexMesh Tutorial2017-04-01 01/04/17123901ankur_garg
Scilabxcos - rfile_f - input format2017-03-31 31/03/17142501ebike_dev
ScilabHow to define variable for a matrix?2017-03-29 29/03/1788801emerson.g…
OpenFOAMpressure plot in paraFoam2017-03-27 27/03/17178001SUBHANKAR
eSimError trying to create schematic (Ubuntu running under Win10)2017-03-24 24/03/17243806lreni
eSimngspice not running in eSim2017-03-22 22/03/1793304RG190564
eSimWarning at starting eSim and error at calling ngspice2017-03-21 21/03/1787701RG190564
DWSIMUnbalanced equation2017-03-19 19/03/1792902nas.fiq
Scilabscilab simulation error 21; Invalid index.2017-03-18 18/03/17349001adiblhf
Scilabsimulation problem2017-03-17 17/03/1793501adiblhf
eSimSOFTWARE IS NOT WORKING2017-03-17 17/03/1796801ajitsingh
OpenFOAMpost-processing in paraview2017-03-10 10/03/17135601SUBHANKAR
DWSIMDWSIM components2017-03-08 08/03/17114102nirbhay13…
OpenFOAMHow to find/call each individual cell in a computational domain2017-03-08 08/03/17274003sarojdip
ScilabSimulation of pipe flow2017-03-01 01/03/1791601jasvinder
Scilab ToolboxImage read and display problem2017-02-24 24/02/17121801ramansast…
eSimQuery Related Esim2017-02-24 24/02/1782401Sunil4u
FOSSEE LaptopTest Question2017-02-23 23/02/1773001test
ScilabVelocity profile2017-02-16 16/02/1779701jasvinder
Scilab Toolboxplease specify the complete detailed instruction of installing scilab symbolic …2017-02-10 10/02/1783201dhatta
Scilab2D Lookup Table: How to do it??2017-02-07 07/02/17134502Prof.X
ScilabCompile call_scilab in c++ using Eclipse IDE Helios Service Release 22017-02-04 04/02/17102501phamish20…
Scilabscilab cloud2017-02-03 03/02/17105503girishl
SBHSMachine ID 62017-02-03 03/02/1785501140020009
ScilabQUESTION IS x(t)=exp(a*t) while a>12017-01-26 26/01/17106611dhatta
OpenFOAMmultiPhaseEulerFoam case running issue..2017-01-17 17/01/17132101sarojdip
OpenFOAMBasic queries regarding cad, mesh and sim2017-01-16 16/01/1795502Rawnap07
ScilabXcos Block Wizard2017-01-16 16/01/17117901Shigeru
DWSIMRECYCLE STREAM2017-01-10 10/01/17164801thubelihle
ScilabHow to load file .dat with true variable name2017-01-07 07/01/17230103dafri
Scilabusage of scilab2016-12-30 30/12/16121901lipikasar…
DWSIMSIMULATION inquiry2016-12-29 29/12/1695302thubelihle
Scilabplot crashes using scf under Xubuntu2016-12-28 28/12/1689301sebf
ScilabsciFLT toolbox - Unable to load block from...2016-12-25 25/12/16132801DLakomy
DWSIMHEAT EXCHANGER2016-12-04 04/12/16123201thubelihle
DWSIMOPEN SOURCE APPLICATION2016-12-03 03/12/16100205thubelihle
DWSIMFLASH DRUM SEPARATOR2016-12-03 03/12/16108501thubelihle
ScilabXcos: an equivalent simulink palette2016-12-01 01/12/16108601Naiara
eSimnot getting frequency response2016-11-26 26/11/1686601bibek
eSimnot fetting correct result2016-11-24 24/11/1685001bibek
OpenFOAMpost-processing problem2016-11-23 23/11/16124401SUBHANKAR
eSimNor getting coorrect output for a clamper circuit2016-11-23 23/11/16101001bibek
ScilabIPD BlobStatistics2016-11-22 22/11/1688101AllenMar
ScilabHow to install E4coder in Scilab2016-11-22 22/11/1694701Mohamed
ScilabAdding a non-numerical header for a text file of numerical column values in Sci…2016-11-21 21/11/16115001Farhan
ScilabCombining two text files to one in Scilab2016-11-21 21/11/16102501Farhan
OpenFOAMproblem in results2016-11-21 21/11/1697902SUBHANKAR
ScilabfscanfMat in GUI (PushButton)2016-11-18 18/11/1698302Hackmet
ScilabfscanfMat via PushButton?2016-11-18 18/11/1693901Hackmet
eSimNot getting the correct Python plot2016-11-18 18/11/1694401bibek
Scilabmaking a circle looking like a circle2016-11-16 16/11/16211002moon61
ScilabHelp required in running a C program in scilab2016-11-16 16/11/16154806Vijay_Kar…
eSimeSim on BOSS Linux (anoop)2016-11-14 14/11/1689301madhan
ScilabPlotting coordinates2016-11-11 11/11/1689401AllenMar
ScilabRandom binary sequence generator2016-11-10 10/11/16110401ashutumho
ScilabImplementing Matlab function in scilab2016-11-10 10/11/1698501Nisha
ScilabBitBucket Repo2016-11-09 09/11/1685301Anuradha
ScilabCACSD toolbox install2016-11-06 06/11/1695801Survinder…
OpenFOAMopenfoam to firefoam throuh paraview?2016-11-01 01/11/16153303francesco…
OpenFOAMNo vortex shedding2016-10-31 31/10/16100001SUBHANKAR
ScilabHow to install scilab communication toolbox for Scilab 5.5.12016-10-29 29/10/16104301kavyamano…
ScilabHow to draw gear profile.2016-10-26 26/10/1698801Prashant05
OpenFOAMparaview tools2016-10-21 21/10/16106901SUBHANKAR
OpenFOAMerror while running a solver2016-10-13 13/10/16527701SUBHANKAR
OpenFOAMSurfaceTracking2016-10-06 06/10/16104601Arahata
eSimSimulation not working. Error while opening phyton plotting editor2016-09-29 29/09/1696001memobecer…
eSimSimulation not working2016-09-29 29/09/1691301memobecer…
OpenFOAMboundary condition2016-09-26 26/09/1690701SUBHANKAR
OpenFOAMplotting the residuals2016-08-23 23/08/16208001SUBHANKAR
eSimdc analysis reg2016-08-18 18/08/1685601krishna
OpenFOAMplotting in paraview2016-08-16 16/08/1697802SUBHANKAR
eSimRun setup2016-08-08 08/08/16166101Shubham
eSimDC Analysis _reg2016-08-04 04/08/16115402krishna
OpenFOAMco-efficient of drag and lift2016-08-03 03/08/16116404SUBHANKAR
OpenFOAMopemFoam2016-08-02 02/08/16112902mrinal
Scilabsivp TOOLBOX2016-07-22 22/07/16164506amol_gp
eSimerror while opening python plotting error2016-07-21 21/07/16114401Ramu
OpenFOAMPROBLEM2016-07-21 21/07/16114201SUBHANKAR
Scilabunable to install SIVP2016-07-20 20/07/16129901amish
eSimUnable to install eSim on Ubuntu2016-07-19 19/07/16118901Ramu
eSimInjecting noise2016-07-16 16/07/16116301dangel
eSimexecution error reg2016-07-13 13/07/16108101krishna
ScilabScimax - Scilab Symbolic Toolbox2016-07-12 12/07/16234804gsanchit1…
eSimExecution reg2016-07-11 11/07/16110903krishna
eSimregarding Lab migration project2016-07-09 09/07/16106201bjena
ScilabScilab Xcos2016-07-06 06/07/16206701jalpa
ScilabScilab 5.5.2 - Xcos2016-07-06 06/07/16399505jalpa
eSimpython plotting window does not open up (On latest build of eSim)2016-06-26 26/06/16131303kavyamano…
eSiminstallation reg2016-06-24 24/06/16116101krishna
OpenFOAMblockmeshdict file2016-06-23 23/06/16116801SUBHANKAR
ScilabSCILAB certification2016-06-22 22/06/16135901miniranis
ScilabSCILAB code for lotka voltera model2016-06-19 19/06/16123901amol_gp
ScilabNumerical Linearization (CACSD tool)2016-06-15 15/06/16124303madhan
OpenFOAMWriting blockMeshDict file2016-06-14 14/06/16117101SUBHANKAR
eSimeSim not working in windows 102016-06-06 06/06/16125201dangel
eSimundetaking form2016-05-31 31/05/16106601bjena
eSimesim training on skype2016-05-31 31/05/16107901bjena
DWSIMNew Compound Creator Study2016-05-26 26/05/16233501akashbt
OpenFOAMobject inspector menu in paraview2016-05-25 25/05/16138801SUBHANKAR
ScilabAnswer format in scilab2016-05-16 16/05/16191601nihalbisen
OpenFOAMTROUBLE IN SIMULATION2016-05-15 15/05/16141902SUBHANKAR
OpenFOAMSimulation of Euler-lagrangian bubble using OpenFOAM2016-05-11 11/05/16185102anirbanmo…
OpenFOAMOPENFOAM IN WINDOWS2016-05-10 10/05/16153501SUBHANKAR
eSimProblem in getting started with eSim2016-05-06 06/05/16132702jebi
ScilabError in graphic plot2016-05-03 03/05/16135601mipeli
DWSIMHow to install and run DWSIM on MAC AIR?2016-04-25 25/04/16156302dprao
ScilabDebug a function plot2016-04-25 25/04/16259504rinkley
OpenFOAMHow to plot a graph in Open foam2016-04-24 24/04/16205801KVK
eSimproblem in creating project2016-04-23 23/04/16122101teny
DWSIMCreating component hypothetically2016-04-22 22/04/16339102krunal
ScilabReading a wav file2016-04-21 21/04/16138802Muralikri…
eSimscilab contourf plot axis scaling2016-04-06 06/04/16127301max0924051
Scilabscilab plot contourf2016-03-31 31/03/16146703max0924051
eSimincorect ac simulaton2016-03-29 29/03/161140011mikimous…
eSimeSim Eeschema Diode component problem.2016-03-24 24/03/16137601Winderson
eSimunable to simulate dc power supply2016-03-23 23/03/16113801ankush
eSimImpossibilité de créer un subcircuit.2016-03-22 22/03/16118601jptt
eSimImpossibilité de créer un subcircuit.2016-03-22 22/03/16113203jptt
OpenFOAMError in Turbulence Solver2016-03-18 18/03/16669806KVK
eSimEnable to find AC voltage source2016-03-15 15/03/16274702ankush
Scilabplot sin(x)/x2016-03-14 14/03/16166702RudiLehn
OpenFOAMSimulation error (delta T is decreasing while the iterations are being carried …2016-03-13 13/03/16575105KVK
FOSSEE LaptopCost and postal charge2016-03-11 11/03/16135901arasu
eSimInstallation error2016-03-10 10/03/16172701alex
Scilabsurf color with OS X2016-03-06 06/03/16124803RudiLehn
eSimTesting Forum Reply2016-03-01 01/03/161293011fahim
eSimUnable to get details of source2016-03-01 01/03/16134705ankush
ScilabVehicle Count2016-02-27 27/02/16157501chinnur010
DWSIMEquilibrium reactor simulation2016-02-26 26/02/16445202Parul_sah…
eSimRegarding footprint2016-02-25 25/02/16113203pankaj
Scilabreading dcm images - error2016-02-16 16/02/16153401dr.cs1973
Scilabmpi in scilab2016-02-14 14/02/16131301Vadim
FOSSEE LaptopHindi Typing Layout2016-02-13 13/02/1697402sai
FOSSEE LaptopKiwix - Offline Wikipedia2016-02-11 11/02/1692201sai
DWSIMTextbook companion project2016-02-10 10/02/16129702vigneshve…
Scilabdrop2016-02-10 10/02/16130603JeniVenit
Python"syms" not taking help!2016-02-09 09/02/16106501rishabhra…
eSimUnable to run the simulation2016-02-09 09/02/16132704balu.eee2…
eSimError while opening python plotting Editor.2016-02-05 05/02/16139404yogi
FOSSEE Laptopfeatures of laptop2016-01-29 29/01/16104302janabhask…
eSimlab migration programe2016-01-29 29/01/16118401janabhask…
ScilabFlood fill Operation in Scilab2016-01-20 20/01/16199701saraths
eSimunable to install e sim on linux2016-01-18 18/01/16119801yogi
eSimunable to install e sim on linux2016-01-18 18/01/16127701yogi
eSimGetting errors when simulating the basic logic gates2016-01-18 18/01/16124201abaruah
eSimSimulation of basic logic gates2016-01-18 18/01/16117201abaruah
eSimSimulation of basic logic gates2016-01-18 18/01/16183003abaruah
eSimError while openinf python plotting Editor2016-01-18 18/01/16128702abaruah
FOSSEE Laptopaudio-video recorded by kazam2016-01-14 14/01/1682502sai
eSimabout istallation on ubuntu2016-01-11 11/01/16118001yesmahi
ScilabHow to make and display calculation Table using scilab.2016-01-11 11/01/16410501taneja
FOSSEE Laptopoffline wikipedia2016-01-09 09/01/1687301sai
ScilabSolution provided in book is wrong2016-01-06 06/01/16139201taneja
ScilabShould answer in book exactly match the one from your code.2016-01-05 05/01/16136802taneja
DWSIMConversion of Reaction2016-01-04 04/01/16167701maniktheg…
FOSSEE LaptopHow can I get Fossee Laptop2016-01-01 01/01/1688601shridhar_…
DWSIMUnavailability of compounds in Database2015-12-24 24/12/15201002Y.K.Aravi…
DWSIMTEXTBOOK COMPANION INTERNSHIP2015-12-23 23/12/15132001maniktheg…
ScilabWavelet transform in scilab2015-12-12 12/12/15263102aseemsr
eSimRight pane of footprint editor is empty2015-11-25 25/11/15132501kavyamano…
eSimI am unable to Install eSim software.2015-11-25 25/11/15136601balu.eee2…
eSimRegarding IN/OUT pin configuration2015-11-06 06/11/15130302upk345
eSimunable to add LM741 subcircuit2015-11-04 04/11/15143302sunitha
eSimConduction of workshop regarding2015-10-31 31/10/15114501boomaeeef…
Osdagmazhar2015-10-27 27/10/15106902mazhar
eSimunable to open esim source to place sine wave2015-10-25 25/10/15121002muqeeth
eSimEsim Not supported in Windows10-Reg2015-10-24 24/10/15127101srimaky
eSimunable to create project2015-10-24 24/10/151952-12muqeeth
eSimHow to plot voltage Vs current through a diode (Diode chara.)2015-10-23 23/10/15179104kavyamano…
eSimProblem regarding current direction.2015-10-21 21/10/15113801samre1234
eSimhow to measure resistance2015-10-21 21/10/15110101samre1234
DWSIMTransient simulations and Stream wise report2015-10-21 21/10/15162901prnaren
eSimMeasurement of resistance in eSim.2015-10-18 18/10/15105001samre1234
eSimTo measure and plot the branch current.2015-10-16 16/10/15121001samre1234
eSimInstallation with Windows2015-10-15 15/10/15137602srinaths
FOSSEE Laptopbrightness decreases after 10-15 seconds2015-10-15 15/10/1590901Deepak
eSimError while opening python plotting editor.2015-10-14 14/10/15128002samre1234
eSimAPR33A32015-10-08 08/10/15117901Swetha
eSimyour schematic contains an unknown component vplot8_12015-09-26 26/09/15169901samre1234
eSimYour schematic contain unknown model tl0722015-09-22 22/09/15137401Ebardie
eSimWIndows installation2015-09-22 22/09/15155703Ebardie
FOSSEE Laptopmouse pad and LAN2015-09-20 20/09/1588301150100063
FOSSEE Laptopunable to download flash player2015-09-15 15/09/1594201Deepak
FOSSEE Laptopmouse pad + keybord2015-09-14 14/09/1585601Jogendra
FOSSEE Laptopregarding password2015-09-14 14/09/1586701150260019
SandhiWhile creating up counter block in python getting following erros at cmake2015-09-08 08/09/15115711Ashwini
SandhiWhile generating up counter block getting following error at cmake2015-09-08 08/09/1598501Ashwini
Sandhisandhi installation error2015-09-03 03/09/15101701Ashwini
Sandhi"Sandhi" installation2015-09-03 03/09/1599601Ashwini
OpenFOAMcharger making sparking like noise2015-08-31 31/08/15117201150020063
SandhiError Message2015-08-31 31/08/15105302Ashwini
FOSSEE Laptopkeyboard2015-08-26 26/08/15100701bittu
FOSSEE LaptopHotspot2015-08-25 25/08/1595102akshaykha…
SandhiWay to create block in Python2015-08-24 24/08/15136901Ashwini
FOSSEE LaptopInternet not working through lan cable2015-08-23 23/08/1592002akshaykha…
FOSSEE Laptopcamera2015-08-23 23/08/1588501Deepak
SandhiBy default it is taking C++ language.Why not asking for language?2015-08-13 13/08/15102201Ashwini
Sandhiwhile running make command I am getting following error2015-08-06 06/08/15104300Ashwini
Scilab-ArduinoError while executing exec loader.sce2015-08-05 05/08/15152202kinitrupti
Scilab-Arduinocommunication over ethernet instead of usb2015-08-05 05/08/15109301Rajaneesh…
Scilab-ArduinoWhich macros is being used? .sci or .bin!!!2015-08-05 05/08/1590402Rajaneesh…
Scilab-Arduinomodification in firmware for pwm freq setup2015-08-05 05/08/15110901Rajaneesh…
SandhiWhile developing source block in sandhi getting errors:2015-08-05 05/08/15105100Ashwini
Sandhigrep2015-08-04 04/08/15104600Ashwini
Scilab-ArduinoCost of Arduino board with shield2015-08-04 04/08/15102002Siva_J
SandhiI want to implement same block as constatnt block2015-07-28 28/07/15106302Ashwini
Scilab-ArduinoUnable to upload program with Scilab Arduino Toolbox2015-07-26 26/07/15154706Navdeep
SandhiI want to change number of input2015-07-23 23/07/15106201Ashwini
Sandhii have module named as D into that block sub. Now i am going to create another …2015-07-23 23/07/15119101Ashwini
FOSSEE Laptophow to enter bios setup2015-07-16 16/07/15100611namitkasl…
SandhiPorting Sandhi program on website2015-07-16 16/07/15105600anamaykane
FOSSEE LaptopNot able to install Flash Plugin in Firefox on FOSSEE2015-07-15 15/07/1596901namitkasl…
SandhiScilab code to Sandhi block2015-07-13 13/07/15113503anamaykane
FOSSEE Laptopprinter2015-05-06 06/05/15135726rodneyber…
PythonCheck if a file exists using Python2015-03-27 27/03/15133305test2
FOSSEE LaptopDamped audio through speakers and headphone2015-03-26 26/03/15107111Srikant